[[{"header":{"parameterUnit":"m.s-1","parameterCategory":1,"la1":30.6,"la2":29.2853,"lo1":-89.7004,"lo2":-87.6739,"dy":0.0162,"dx":0.0183,"nx":112,"ny":82,"refTime":"2023-04-12T06:00:00:Z","depth":0,"parameterNumber":2,"parameterNumberName":"U-component_of_WINDS"},"data":[0.0,0.0,0.0,0.0,0.0,0.0,0.0,0.0,0.0,0.0,0.0,0.0,0.0,0.0,0.0,0.0,0.0,0.0,0.0,0.0,0.0,0.0,0.0,0.0,0.0,0.0,0.0,0.0,0.0,0.0,0.0,0.0,0.0,0.0,0.0,0.0,0.0,0.0,0.0,0.0,0.0,0.0,0.0,0.0,0.0,0.0,0.0,0.0,0.0,0.0,0.0,0.0,0.0,0.0,0.0,0.0,0.0,0.0,0.0,0.0,0.0,0.0,0.0,0.0,0.0,0.0,0.0,0.0,0.0,0.0,0.0,0.0,0.0,0.0,0.0,0.0,0.0,0.0,0.0,0.0,0.0,0.0,0.0,0.0,0.0,0.0,0.0,0.0,0.0,0.0,0.0,4.5515,4.5592,4.5592,4.5592,4.5592,4.5592,4.5592,0.0,0.0,0.0,0.0,0.0,0.0,0.0,0.0,0.0,0.0,0.0,0.0,0.0,0.0,0.0,0.0,0.0,0.0,0.0,0.0,0.0,0.0,0.0,0.0,0.0,0.0,0.0,0.0,0.0,0.0,0.0,0.0,0.0,0.0,0.0,0.0,0.0,0.0,0.0,0.0,0.0,0.0,0.0,0.0,0.0,0.0,0.0,0.0,0.0,0.0,0.0,0.0,0.0,0.0,0.0,0.0,0.0,0.0,0.0,0.0,0.0,0.0,0.0,0.0,0.0,0.0,0.0,0.0,0.0,0.0,0.0,0.0,0.0,0.0,0.0,0.0,0.0,0.0,0.0,0.0,0.0,0.0,0.0,0.0,0.0,0.0,0.0,0.0,0.0,0.0,0.0,0.0,0.0,0.0,0.0,0.0,0.0,0.0,0.0,0.0,0.0,0.0,0.0,0.0,4.5438,4.5592,4.5592,4.5592,4.5592,4.5592,4.5592,4.5592,0.0,0.0,0.0,0.0,0.0,0.0,0.0,0.0,0.0,0.0,0.0,0.0,0.0,0.0,0.0,0.0,0.0,0.0,0.0,0.0,0.0,0.0,0.0,0.0,0.0,0.0,0.0,0.0,0.0,0.0,0.0,0.0,0.0,0.0,0.0,0.0,0.0,0.0,0.0,0.0,0.0,0.0,0.0,0.0,0.0,0.0,0.0,0.0,0.0,0.0,0.0,0.0,0.0,0.0,0.0,0.0,0.0,0.0,0.0,0.0,0.0,0.0,0.0,0.0,0.0,0.0,0.0,0.0,0.0,0.0,0.0,0.0,0.0,0.0,0.0,0.0,0.0,0.0,0.0,0.0,0.0,0.0,0.0,0.0,0.0,0.0,0.0,0.0,0.0,0.0,0.0,0.0,0.0,0.0,0.0,0.0,0.0,0.0,0.0,0.0,0.0,0.0,0.0,4.5361,4.5592,4.5592,4.5592,4.5592,4.5592,4.5592,4.5592,4.5592,4.5592,0.0,0.0,0.0,0.0,0.0,0.0,0.0,0.0,0.0,0.0,0.0,0.0,0.0,0.0,0.0,0.0,0.0,0.0,0.0,0.0,0.0,0.0,0.0,0.0,0.0,0.0,0.0,0.0,0.0,0.0,0.0,0.0,0.0,0.0,0.0,0.0,0.0,0.0,0.0,0.0,0.0,0.0,0.0,0.0,0.0,0.0,0.0,0.0,0.0,0.0,0.0,0.0,0.0,0.0,0.0,0.0,0.0,0.0,0.0,0.0,0.0,0.0,0.0,0.0,0.0,0.0,0.0,0.0,0.0,0.0,0.0,0.0,0.0,0.0,0.0,0.0,0.0,0.0,0.0,0.0,0.0,0.0,0.0,0.0,0.0,0.0,0.0,0.0,0.0,0.0,0.0,0.0,0.0,0.0,0.0,0.0,0.0,0.0,0.0,0.0,0.0,0.0,4.5592,4.5592,4.5592,4.5782,4.5898,4.5898,4.609,4.6206,4.6206,4.6013,0.0,0.0,0.0,0.0,0.0,0.0,0.0,0.0,0.0,0.0,0.0,0.0,0.0,0.0,0.0,0.0,0.0,0.0,0.0,0.0,0.0,0.0,0.0,0.0,0.0,0.0,0.0,0.0,0.0,0.0,0.0,0.0,0.0,0.0,0.0,0.0,0.0,0.0,0.0,0.0,0.0,0.0,0.0,0.0,0.0,0.0,0.0,0.0,0.0,0.0,0.0,0.0,0.0,0.0,0.0,0.0,0.0,0.0,0.0,0.0,0.0,0.0,0.0,0.0,0.0,0.0,0.0,0.0,0.0,0.0,0.0,0.0,0.0,0.0,0.0,0.0,0.0,0.0,0.0,0.0,0.0,0.0,0.0,0.0,0.0,0.0,0.0,0.0,0.0,0.0,0.0,0.0,0.0,0.0,0.0,0.0,0.0,0.0,0.0,0.0,0.0,0.0,4.5592,4.5592,4.5592,4.6317,4.6812,4.6812,4.7507,4.793,4.793,4.7235,0.0,0.0,0.0,0.0,0.0,0.0,0.0,0.0,0.0,0.0,0.0,0.0,0.0,0.0,0.0,0.0,0.0,0.0,0.0,0.0,0.0,0.0,0.0,0.0,0.0,0.0,0.0,0.0,0.0,0.0,0.0,0.0,0.0,0.0,0.0,0.0,0.0,0.0,0.0,0.0,0.0,0.0,0.0,0.0,0.0,0.0,0.0,0.0,0.0,0.0,0.0,0.0,0.0,0.0,0.0,0.0,0.0,0.0,0.0,0.0,0.0,0.0,0.0,0.0,0.0,0.0,0.0,0.0,0.0,0.0,0.0,0.0,0.0,0.0,0.0,0.0,0.0,0.0,0.0,0.0,0.0,0.0,0.0,0.0,0.0,0.0,0.0,0.0,0.0,0.0,0.0,0.0,0.0,0.0,0.0,0.0,0.0,0.0,0.0,0.0,0.0,0.0,4.6394,4.6586,0.0,4.7468,4.7658,4.7658,4.793,4.8084,4.8084,0.0,0.0,0.0,0.0,0.0,0.0,0.0,0.0,0.0,0.0,0.0,0.0,0.0,0.0,0.0,0.0,0.0,0.0,0.0,0.0,0.0,0.0,0.0,0.0,0.0,0.0,0.0,0.0,0.0,0.0,0.0,0.0,0.0,0.0,0.0,0.0,0.0,0.0,0.0,0.0,0.0,0.0,0.0,0.0,0.0,0.0,0.0,0.0,0.0,0.0,0.0,0.0,0.0,0.0,0.0,0.0,0.0,0.0,0.0,0.0,0.0,0.0,0.0,0.0,0.0,0.0,0.0,0.0,0.0,0.0,0.0,0.0,0.0,0.0,0.0,0.0,0.0,0.0,0.0,0.0,0.0,0.0,0.0,0.0,0.0,0.0,0.0,0.0,0.0,0.0,0.0,0.0,0.0,0.0,0.0,0.0,0.0,0.0,0.0,0.0,0.0,0.0,4.7158,4.7274,4.7505,0.0,4.8238,4.834,4.834,4.8446,4.8548,4.8548,0.0,0.0,0.0,0.0,0.0,0.0,0.0,0.0,0.0,0.0,0.0,0.0,0.0,0.0,0.0,0.0,0.0,0.0,0.0,0.0,0.0,0.0,0.0,0.0,0.0,0.0,0.0,0.0,0.0,0.0,0.0,0.0,0.0,0.0,0.0,0.0,0.0,0.0,0.0,0.0,0.0,0.0,0.0,0.0,0.0,0.0,0.0,0.0,0.0,0.0,0.0,0.0,0.0,0.0,0.0,0.0,0.0,0.0,0.0,0.0,0.0,0.0,0.0,0.0,0.0,0.0,0.0,0.0,0.0,0.0,0.0,0.0,0.0,0.0,0.0,0.0,0.0,0.0,0.0,0.0,0.0,0.0,0.0,0.0,0.0,0.0,0.0,0.0,0.0,0.0,0.0,0.0,0.0,0.0,0.0,0.0,0.0,0.0,0.0,0.0,0.0,0.0,4.8007,4.8122,4.812,4.8118,4.8559,4.8835,4.8829,4.9246,4.953,0.0,0.0,0.0,0.0,0.0,0.0,0.0,0.0,0.0,0.0,0.0,0.0,0.0,0.0,0.0,0.0,0.0,0.0,0.0,0.0,0.0,0.0,0.0,0.0,0.0,0.0,0.0,0.0,0.0,0.0,0.0,0.0,0.0,0.0,0.0,0.0,0.0,0.0,0.0,0.0,0.0,0.0,0.0,0.0,0.0,0.0,0.0,0.0,0.0,0.0,0.0,0.0,0.0,0.0,0.0,0.0,0.0,0.0,0.0,0.0,0.0,0.0,0.0,0.0,0.0,0.0,0.0,0.0,0.0,0.0,0.0,0.0,0.0,0.0,0.0,0.0,0.0,0.0,0.0,0.0,0.0,0.0,0.0,0.0,0.0,0.0,0.0,0.0,0.0,0.0,0.0,0.0,0.0,0.0,0.0,0.0,0.0,0.0,0.0,0.0,0.0,0.0,0.0,4.8894,4.9009,4.9129,4.9466,5.015,5.045,5.0151,5.0782,5.1202,5.1202,0.0,0.0,0.0,0.0,0.0,0.0,0.0,0.0,0.0,0.0,0.0,0.0,0.0,0.0,0.0,0.0,0.0,0.0,0.0,0.0,0.0,0.0,0.0,0.0,0.0,0.0,0.0,0.0,0.0,0.0,0.0,0.0,0.0,0.0,0.0,0.0,0.0,0.0,0.0,0.0,0.0,0.0,0.0,0.0,0.0,0.0,0.0,0.0,0.0,0.0,0.0,0.0,0.0,0.0,0.0,0.0,0.0,0.0,0.0,0.0,0.0,0.0,0.0,0.0,0.0,0.0,0.0,0.0,0.0,0.0,0.0,0.0,0.0,0.0,0.0,0.0,0.0,0.0,0.0,0.0,0.0,0.0,0.0,0.0,0.0,0.0,0.0,0.0,0.0,0.0,0.0,0.0,0.0,0.0,0.0,0.0,0.0,0.0,0.0,0.0,0.0,0.0,5.0277,5.0702,5.0978,5.1089,5.1385,5.1407,5.0996,5.1245,5.1479,5.1479,0.0,0.0,0.0,0.0,0.0,0.0,0.0,0.0,0.0,0.0,0.0,0.0,0.0,0.0,0.0,0.0,0.0,0.0,0.0,0.0,0.0,0.0,0.0,0.0,0.0,0.0,0.0,0.0,0.0,0.0,0.0,0.0,0.0,0.0,0.0,0.0,0.0,0.0,0.0,0.0,0.0,0.0,0.0,0.0,0.0,0.0,0.0,0.0,0.0,0.0,0.0,0.0,0.0,0.0,0.0,0.0,0.0,0.0,0.0,0.0,0.0,0.0,0.0,0.0,0.0,0.0,0.0,0.0,0.0,0.0,0.0,0.0,0.0,0.0,0.0,0.0,0.0,0.0,0.0,0.0,0.0,0.0,0.0,0.0,0.0,0.0,0.0,0.0,0.0,0.0,0.0,0.0,0.0,0.0,0.0,0.0,0.0,0.0,0.0,0.0,0.0,0.0,5.189,5.2656,5.2954,5.2544,5.2218,5.1872,5.1391,5.1133,5.1017,5.1017,0.0,0.0,0.0,0.0,0.0,0.0,0.0,0.0,0.0,0.0,0.0,0.0,0.0,0.0,0.0,0.0,0.0,0.0,0.0,0.0,0.0,0.0,0.0,0.0,0.0,0.0,0.0,0.0,0.0,0.0,0.0,0.0,0.0,0.0,0.0,0.0,0.0,0.0,0.0,0.0,0.0,0.0,0.0,0.0,0.0,0.0,0.0,0.0,0.0,0.0,0.0,0.0,0.0,0.0,0.0,0.0,0.0,0.0,0.0,0.0,4.2803,0.0,0.0,0.0,0.0,0.0,0.0,0.0,0.0,0.0,0.0,0.0,0.0,0.0,0.0,0.0,0.0,0.0,0.0,0.0,0.0,0.0,0.0,0.0,0.0,0.0,0.0,0.0,0.0,0.0,0.0,0.0,0.0,0.0,0.0,0.0,0.0,0.0,0.0,0.0,0.0,0.0,5.2476,5.2595,5.2436,5.164,5.2071,5.2237,5.1895,5.2364,5.27,5.27,0.0,0.0,0.0,0.0,0.0,0.0,0.0,0.0,0.0,0.0,0.0,0.0,0.0,0.0,0.0,0.0,0.0,0.0,0.0,0.0,0.0,0.0,0.0,0.0,0.0,0.0,0.0,0.0,0.0,0.0,0.0,0.0,0.0,0.0,0.0,0.0,0.0,0.0,0.0,0.0,0.0,0.0,0.0,0.0,0.0,0.0,0.0,0.0,0.0,0.0,0.0,0.0,0.0,0.0,0.0,0.0,0.0,0.0,0.0,0.0,0.0,4.3196,0.0,0.0,0.0,0.0,0.0,0.0,0.0,0.0,0.0,0.0,0.0,0.0,0.0,0.0,0.0,0.0,0.0,0.0,0.0,0.0,0.0,0.0,0.0,0.0,0.0,0.0,0.0,0.0,0.0,0.0,0.0,0.0,0.0,0.0,0.0,0.0,0.0,0.0,0.0,0.0,5.3178,5.337,5.3259,5.2583,5.2879,5.2975,5.2611,5.2962,5.3214,5.3214,5.2816,0.0,0.0,0.0,0.0,0.0,0.0,0.0,0.0,0.0,0.0,0.0,0.0,0.0,0.0,0.0,0.0,0.0,0.0,0.0,0.0,0.0,0.0,0.0,0.0,0.0,0.0,0.0,0.0,0.0,0.0,0.0,0.0,0.0,0.0,0.0,0.0,0.0,0.0,0.0,0.0,0.0,0.0,0.0,0.0,0.0,0.0,0.0,0.0,0.0,0.0,0.0,0.0,0.0,4.4233,4.4327,4.4113,4.4458,4.45,4.4344,4.4686,4.4318,4.3536,0.0,0.0,0.0,0.0,0.0,0.0,0.0,0.0,0.0,0.0,0.0,0.0,0.0,0.0,0.0,0.0,0.0,0.0,0.0,0.0,0.0,0.0,0.0,0.0,0.0,4.7654,4.7654,0.0,0.0,0.0,0.0,0.0,0.0,0.0,0.0,0.0,0.0,0.0,0.0,5.3949,5.4348,5.4458,5.4153,5.4096,5.4,5.366,5.3623,5.3623,5.3623,5.3623,5.3623,0.0,0.0,0.0,0.0,0.0,0.0,0.0,0.0,0.0,0.0,0.0,0.0,0.0,0.0,0.0,0.0,0.0,0.0,0.0,0.0,0.0,0.0,0.0,0.0,0.0,0.0,0.0,0.0,0.0,0.0,0.0,0.0,4.0512,4.0626,0.0,0.0,0.0,0.0,0.0,0.0,0.0,0.0,0.0,0.0,0.0,0.0,0.0,4.374,4.3496,4.3898,4.3908,4.3559,4.3622,4.3978,4.4609,4.4669,4.5037,4.5647,4.5709,0.0,4.351,4.3534,0.0,0.0,0.0,0.0,0.0,0.0,0.0,0.0,0.0,0.0,0.0,0.0,0.0,0.0,0.0,0.0,0.0,0.0,0.0,0.0,0.0,0.0,4.8518,4.995,5.0318,5.0318,0.0,4.9641,4.9532,5.1028,5.1496,0.0,0.0,0.0,0.0,0.0,0.0,0.0,5.4794,5.4885,5.5027,5.5349,5.5363,5.5336,5.5297,5.5291,5.5291,5.5291,5.5291,5.5291,5.5291,5.462,0.0,0.0,0.0,0.0,0.0,0.0,0.0,0.0,0.0,0.0,0.0,0.0,0.0,0.0,0.0,0.0,0.0,0.0,0.0,0.0,0.0,0.0,0.0,0.0,0.0,0.0,0.0,0.0,0.0,4.0663,4.1099,4.1099,4.1507,4.1768,0.0,0.0,0.0,0.0,0.0,0.0,0.0,0.0,0.0,4.3506,4.4094,4.4315,4.4195,4.4758,4.4979,4.486,4.486,4.5044,4.5369,4.5369,4.5553,4.5883,4.5883,4.5484,4.486,4.486,4.486,4.486,0.0,0.0,0.0,0.0,4.5369,4.5402,4.5773,4.5883,0.0,0.0,0.0,0.0,0.0,0.0,0.0,0.0,0.0,0.0,0.0,0.0,0.0,5.0613,5.0797,5.0912,5.1394,5.1168,5.1014,0.0,5.1944,5.2431,5.2869,0.0,0.0,0.0,0.0,0.0,5.5615,5.549,5.5407,5.5576,5.5585,5.5585,5.5585,5.5585,5.5585,5.5585,5.5585,5.5585,5.5585,5.5249,5.5065,0.0,0.0,0.0,0.0,0.0,0.0,0.0,0.0,0.0,0.0,0.0,0.0,0.0,0.0,0.0,0.0,0.0,0.0,0.0,0.0,0.0,0.0,0.0,0.0,0.0,0.0,0.0,0.0,4.158,4.1695,4.1695,4.2249,4.2621,0.0,0.0,0.0,0.0,0.0,0.0,4.3795,4.3983,4.4093,4.4093,4.4709,4.4998,4.4998,4.559,4.5883,4.5883,4.5883,4.5993,4.6209,4.6434,4.6654,4.6842,4.7063,4.7131,4.7095,4.625,4.5883,4.5883,4.5883,4.5883,4.592,4.6136,4.6324,4.6544,4.6769,4.6989,4.7131,4.7131,0.0,4.7131,4.7131,0.0,0.0,0.0,0.0,5.0834,5.1059,5.1096,5.1169,5.1384,5.1568,5.1903,5.2496,5.2795,5.2756,0.0,5.2623,5.3237,5.3862,0.0,0.0,0.0,0.0,5.5764,5.6295,5.6081,5.5989,5.6209,5.6209,5.6209,5.6209,5.6209,5.6209,5.6209,5.6209,5.6209,5.6209,5.6025,5.591,5.591,0.0,0.0,0.0,0.0,0.0,0.0,0.0,0.0,0.0,0.0,0.0,0.0,0.0,0.0,0.0,0.0,0.0,0.0,0.0,0.0,0.0,0.0,0.0,0.0,0.0,0.0,0.0,0.0,0.0,4.3396,4.3437,0.0,0.0,0.0,0.0,4.3506,4.4195,4.4626,4.4626,4.5365,4.5778,4.5778,4.5814,4.5847,4.5847,4.5888,4.5883,4.5883,4.5883,4.6319,4.7081,4.7819,4.8641,4.9459,5.022,5.054,5.032,4.7205,4.5883,4.5883,4.5883,4.5883,4.5993,4.675,4.7521,4.8301,4.9123,4.9894,5.054,5.054,5.054,5.054,5.054,5.0613,0.0,0.0,5.0797,5.0986,5.1725,5.195,5.2129,5.2884,5.366,5.4216,5.4252,5.4882,5.5187,0.0,5.4295,5.4686,5.5859,0.0,5.5702,5.6092,5.5834,5.5884,5.6666,5.6754,5.7036,5.7813,5.7892,5.7892,5.7892,5.7892,5.7892,5.7892,5.7892,5.7892,5.7892,5.7147,5.6743,5.6743,5.5983,0.0,0.0,0.0,0.0,0.0,0.0,0.0,0.0,0.0,0.0,0.0,0.0,0.0,0.0,0.0,0.0,0.0,0.0,0.0,0.0,0.0,0.0,0.0,0.0,0.0,0.0,0.0,0.0,4.3506,4.3506,0.0,4.4232,4.4264,4.4488,4.5007,4.5296,4.5475,4.5475,4.5736,4.5883,4.5883,4.6388,4.6902,4.7457,4.798,4.8536,4.904,4.904,4.9182,4.9471,4.9769,5.0068,5.0403,5.0692,5.0797,5.0724,4.9549,4.904,4.904,4.904,4.904,4.9077,4.9366,4.9654,4.9953,5.0251,5.0545,5.0797,5.0797,5.0797,5.0912,5.1426,5.1578,5.1688,5.2192,5.2706,5.3188,5.3487,5.3927,5.441,5.4698,5.4955,5.5176,5.5176,5.5401,5.5653,5.5899,5.5543,5.5314,5.5723,5.611,5.6406,5.6561,5.6908,5.7268,5.7556,5.7556,5.7666,5.7966,5.8002,5.8002,5.8002,5.8002,5.8002,5.8002,5.8002,5.8002,5.8002,5.7703,5.7556,5.7556,5.7305,5.6901,0.0,0.0,0.0,0.0,0.0,0.0,0.0,0.0,0.0,0.0,0.0,0.0,0.0,0.0,0.0,0.0,0.0,0.0,0.0,0.0,0.0,0.0,0.0,0.0,0.0,0.0,4.3906,4.3906,4.4126,4.453,4.5035,4.5108,4.5328,4.5847,4.614,4.6429,4.6691,4.6989,4.7283,4.7535,4.8076,4.859,4.9145,4.9706,5.0256,5.0797,5.0797,5.0797,5.0802,5.1096,5.1206,5.1206,5.1494,5.1604,5.1604,5.1604,5.1604,5.1568,5.1017,5.0797,5.0797,5.0797,5.098,5.1242,5.1531,5.1604,5.1641,5.1935,5.2008,5.216,5.2973,5.3198,5.3345,5.3849,5.4399,5.4808,5.4808,5.5212,5.5585,5.5585,5.58,5.5983,5.5983,5.6203,5.6571,5.7116,5.6565,5.6093,5.635,5.6859,5.7183,5.7183,5.7666,5.8002,5.8002,5.8002,5.8002,5.8002,5.8002,5.8002,5.8002,5.8002,5.8002,5.8002,5.8002,5.8002,5.8002,5.8002,5.8002,5.8002,5.8002,5.774,5.7183,0.0,0.0,0.0,0.0,0.0,0.0,0.0,0.0,0.0,0.0,0.0,0.0,0.0,0.0,0.0,0.0,0.0,0.0,0.0,0.0,0.0,0.0,0.0,4.369,4.4268,4.4737,4.4737,4.5443,4.5925,4.5925,4.5961,4.5998,4.5993,4.6755,4.7558,4.8338,4.9197,5.0004,5.0765,5.0797,5.0802,5.0839,5.0839,5.0834,5.087,5.087,5.0875,5.0944,5.1725,5.2097,5.2171,5.2926,5.3287,5.3287,5.3287,5.3287,5.3104,5.1531,5.0907,5.0912,5.0944,5.1426,5.2202,5.2999,5.3287,5.3398,5.4174,5.4436,5.4583,5.5365,5.5585,5.5585,5.5585,5.5622,5.5658,5.5658,5.5658,5.5658,5.5658,5.6271,5.6853,5.6853,5.744,5.8002,5.8002,5.7367,5.7073,5.7886,5.8002,5.8002,5.8002,5.8002,0.0,5.8002,5.8002,5.8002,5.8039,5.8033,5.8033,5.807,5.807,5.807,5.807,5.807,5.8076,5.8033,5.8033,5.8039,5.8002,5.8002,5.8002,5.8002,0.0,0.0,0.0,0.0,0.0,0.0,0.0,0.0,0.0,0.0,0.0,0.0,0.0,0.0,0.0,0.0,0.0,0.0,0.0,0.0,0.0,0.0,4.548,4.5259,4.5443,4.5553,4.5553,4.5773,4.6136,4.6714,4.7305,4.7902,4.8536,4.9334,4.9879,5.01,5.0325,5.0582,5.0797,5.0797,5.1096,5.1651,5.1688,5.1977,5.2553,5.2553,5.2852,5.3408,5.3628,5.4074,5.463,5.4845,5.4955,5.4955,5.4955,5.4955,5.4845,5.3812,5.3408,5.3482,5.4074,5.441,5.463,5.4845,5.4955,5.4992,5.5212,5.5254,5.5328,5.5548,5.5585,5.5585,5.5585,5.602,5.6455,5.6455,5.6895,5.7341,5.7341,5.7525,5.7666,5.7666,5.785,5.8002,5.8002,5.7813,5.774,5.796,5.8002,5.8002,5.8002,5.8002,0.0,5.8002,5.8002,5.8217,5.8792,5.8866,5.9129,5.9679,5.9758,5.9758,5.9758,5.9758,5.9496,5.8902,5.8866,5.8615,5.8002,5.8002,5.8002,0.0,0.0,0.0,0.0,0.0,0.0,0.0,0.0,0.0,0.0,0.0,0.0,0.0,0.0,0.0,0.0,0.0,0.0,0.0,0.0,0.0,0.0,4.6388,4.665,4.7361,4.6838,4.6539,4.6874,4.7246,4.7755,4.8553,4.9067,4.9554,5.0073,5.0545,5.0949,5.1279,5.1316,5.1463,5.1788,5.1825,5.2192,5.301,5.301,5.3413,5.421,5.421,5.4436,5.4919,5.4919,5.5144,0.0,5.5585,5.5585,5.5585,5.5585,5.5585,0.0,0.0,0.0,0.0,0.0,5.5585,5.5585,5.5585,5.5585,5.5658,5.5983,5.6093,5.6167,5.6497,5.6607,5.6607,5.6607,5.6932,5.7293,5.7293,5.7666,5.8002,5.8002,5.8002,5.8002,5.8002,5.8002,5.8107,5.8431,5.8505,0.0,5.8951,5.8731,5.8505,5.8505,5.8798,5.9024,5.9024,5.9024,5.9165,5.9636,5.971,5.9893,6.0376,6.0413,0.0,0.0,0.0,6.0193,5.971,5.971,0.0,0.0,0.0,5.9024,5.9024,0.0,0.0,0.0,5.8107,5.774,0.0,0.0,0.0,0.0,0.0,0.0,0.0,0.0,0.0,0.0,0.0,0.0,0.0,0.0,0.0,0.0,4.7448,4.8039,4.9527,4.8448,4.7778,4.8485,4.9265,5.0004,5.0729,5.087,5.0944,5.0944,5.1017,5.1426,5.2239,0.0,0.0,0.0,0.0,5.3807,5.4509,5.4546,5.4882,5.5585,5.5585,5.5658,5.5732,5.5732,5.5768,5.5879,5.5879,5.5879,5.5879,5.5879,5.5879,5.5879,5.5768,5.5805,5.5879,5.5879,5.5879,5.5879,5.5879,0.0,0.0,5.6706,5.6926,5.7073,5.7776,5.8002,5.8002,5.8002,5.8002,5.8002,5.8002,5.8002,5.8033,5.8107,5.8143,5.8143,5.8259,5.8253,5.8474,5.9196,5.9337,5.9563,6.0266,5.982,5.9337,5.9337,5.993,6.0413,6.0413,6.0413,6.0413,6.0529,0.0,0.0,6.067,6.067,6.067,6.067,6.0597,6.0523,6.0523,6.045,6.0413,6.0413,6.0413,6.0413,6.0413,6.0413,6.0413,6.0376,5.8951,5.8253,0.0,0.0,0.0,0.0,0.0,0.0,0.0,0.0,0.0,0.0,0.0,0.0,0.0,0.0,0.0,4.8976,4.9664,5.021,5.0508,5.0288,5.0136,5.0283,5.0472,5.0618,5.0765,5.1389,5.1762,5.1762,5.2375,5.3073,5.3885,5.3922,5.4295,5.5102,5.5139,5.5212,5.5365,5.5365,5.5438,5.5585,0.0,0.0,5.6559,5.6559,5.6932,5.7525,5.7525,5.7525,5.7525,5.7525,5.7525,5.7488,5.6816,5.6969,5.7525,5.7525,5.7525,5.7525,5.7525,5.7525,5.7562,5.7703,5.7776,5.7813,5.7966,5.8002,0.0,5.8002,5.8002,5.8002,5.8002,5.8002,5.8143,5.8792,5.8976,5.9159,5.9789,5.9936,5.9973,6.0156,6.0156,6.023,6.0376,6.0266,6.0156,6.0156,6.0303,6.0413,6.0413,6.0413,6.0639,6.1306,6.138,6.163,6.2279,6.2352,6.2352,6.2352,6.1741,6.138,6.138,6.075,6.0413,6.0413,6.0413,6.0413,6.0413,6.0413,6.0413,6.0376,6.0083,5.9936,0.0,0.0,0.0,0.0,0.0,0.0,0.0,0.0,0.0,0.0,0.0,4.7125,0.0,0.0,4.9701,5.0146,5.0545,5.0944,5.1353,5.1072,5.0998,5.1359,5.1394,5.1573,5.1971,5.2747,5.3193,5.3193,5.3959,5.4583,5.4992,5.4992,5.5176,5.5585,5.5585,5.5805,5.6198,5.6198,5.6381,5.6791,5.6791,5.7011,5.7409,5.7409,5.7629,5.8002,5.8002,5.8002,5.8002,5.8002,5.8002,5.796,5.7556,5.7666,5.8002,5.8002,5.8002,5.8002,5.8002,5.8002,5.8002,5.8002,5.8002,5.8002,5.8002,5.8002,5.8076,5.8505,5.8615,5.8688,5.9092,5.9208,5.9318,5.971,5.9783,5.9893,6.0303,6.0413,6.0523,6.0933,6.1006,6.1117,6.1514,6.1582,6.1478,6.108,6.1331,6.1582,6.1582,6.1582,6.1771,6.2175,6.2591,6.2995,6.3429,6.3827,6.39,6.3466,6.3068,6.2664,6.2212,6.1808,6.1582,6.1582,6.1582,6.1582,6.1582,6.1582,6.1582,6.1582,6.1582,6.1184,0.0,0.0,0.0,0.0,0.0,0.0,0.0,0.0,4.4534,4.6325,4.732,4.8205,4.9221,5.0201,5.0816,5.0816,5.0963,5.1329,5.2134,5.1622,5.1445,5.2151,5.2252,5.2583,5.3367,5.4182,5.4571,5.4449,5.5035,5.5437,5.5626,5.5626,5.5699,5.584,5.584,5.6226,5.7036,5.688,5.721,5.8002,5.8002,5.8002,5.8002,5.8002,5.8002,5.8002,5.8002,5.7933,5.7791,5.795,5.8002,5.8033,5.818,5.8217,5.8217,5.8076,5.8002,5.8002,5.8002,5.8107,5.8217,5.8217,5.8327,5.848,5.848,5.848,5.8584,5.9233,5.941,5.96,6.023,6.0413,6.045,6.0597,6.0633,6.067,6.0817,6.0854,6.1117,6.193,6.2083,6.2334,6.316,6.3306,6.3019,6.2224,6.2658,6.3123,6.327,6.3306,6.3306,6.3306,6.3906,6.4316,6.4316,6.4934,6.5001,6.4353,6.4316,6.4016,6.3306,6.3306,6.3306,6.3306,6.3306,6.3306,6.3306,6.3306,6.3306,6.3306,6.3306,6.2426,4.2158,4.2191,4.2361,4.3085,4.3288,4.379,0.0,0.0,4.6673,4.8136,4.8525,4.8625,4.8772,4.9942,5.0874,5.0874,5.1483,5.2194,5.296,5.2468,5.2334,5.3067,5.3136,5.3489,5.4273,5.5034,5.5204,5.4538,5.4568,5.4935,5.5641,5.5677,5.6002,5.6725,5.6762,5.7127,5.7844,5.7212,5.7249,5.8002,5.8002,5.8002,5.8002,5.8002,5.8002,5.8002,5.8002,5.7643,5.7065,5.7732,5.8002,5.807,5.8792,5.9086,5.8976,5.8253,5.8002,5.8002,5.8002,5.8474,5.9086,5.9086,5.9563,6.012,6.012,6.012,6.0156,6.023,6.0266,6.0303,6.0376,6.0413,6.056,6.1306,6.149,6.1667,6.2389,6.2536,6.2799,6.3656,6.3802,6.4096,6.4891,6.5031,6.4744,6.3949,6.3913,6.4206,6.4928,6.5031,6.5031,6.5031,6.5105,6.5185,6.5185,6.5251,6.5258,6.5185,6.5185,6.5111,6.5031,6.5031,6.5031,6.5031,6.5031,6.5031,6.5031,6.5031,6.5031,6.5031,6.5031,6.4114,4.2821,4.3267,0.0,0.0,4.4742,4.5104,4.6401,4.6717,4.6982,4.7911,4.8496,4.8949,4.9331,5.0261,5.1143,0.0,5.1933,5.2425,5.3142,5.2689,5.2705,5.3858,5.3639,5.353,5.3799,5.4506,5.4814,5.4501,5.4929,5.5341,5.5676,5.5711,5.6085,5.6887,5.6899,5.704,5.7364,5.7046,5.6812,5.6672,5.6672,5.6915,5.7351,5.6853,5.691,5.7372,5.7372,5.7435,5.7568,5.7879,5.8001,5.8037,5.8367,5.8504,5.8576,5.917,5.9391,5.9391,5.9391,5.9606,5.9893,5.9893,6.012,6.0413,6.0413,6.0413,6.0487,6.097,6.108,6.1227,6.1698,6.1808,6.2028,6.2848,6.3032,6.3289,6.4083,6.4261,6.4371,6.4744,6.4787,6.4891,6.5251,6.5288,6.5331,6.5491,6.5081,6.4928,6.5258,6.5288,6.5478,6.5955,6.5999,6.6182,6.6666,6.6696,6.6512,6.6035,6.5999,6.5772,6.5325,6.5288,6.5288,6.5288,6.5288,6.5288,6.5288,6.5288,6.5288,6.5288,6.5288,6.4921,4.414,0.0,0.0,4.5872,4.6,4.621,4.6955,4.709,4.7279,4.7929,4.8525,4.9123,4.9825,5.06,5.1381,5.2114,5.222,5.2487,5.324,5.2743,5.2792,5.4077,5.381,5.3472,5.3364,5.4246,5.4734,5.4555,5.5069,5.5401,5.5401,5.5401,5.566,5.6238,5.6252,5.6347,5.6576,5.6389,5.6188,5.5985,5.6021,5.6445,5.7175,5.661,5.6527,5.6892,5.7107,5.738,5.7698,5.791,5.7999,5.8035,5.8226,5.8332,5.8516,5.9903,6.0267,6.009,6.031,6.056,6.075,6.075,6.089,6.1074,6.1074,6.1074,6.1184,6.1777,6.2114,6.2408,6.3019,6.3306,6.3637,6.4273,6.4427,6.4604,6.5185,6.5288,6.5368,6.5588,6.5625,6.5698,6.5919,6.5955,6.6145,6.6739,6.6329,6.5955,6.5955,6.5955,6.6182,6.6776,6.6849,6.707,6.7664,6.77,6.7437,6.6886,6.6849,6.6549,6.5992,6.5955,6.5955,6.5955,6.5955,6.5955,6.5955,6.5955,6.5955,6.5955,6.5955,6.5955,0.0,0.0,4.6725,4.6759,4.6759,4.6962,4.7684,4.7887,4.8056,4.8804,4.8981,4.9226,4.9976,5.0688,5.1433,5.2188,5.2285,5.2555,5.3279,5.274,5.2612,5.3415,5.35,5.35,0.0,5.4813,5.5373,5.4637,5.4618,5.4618,5.4618,5.4618,5.4634,5.4657,5.4657,5.5029,5.5745,5.5044,5.5379,5.6778,5.6828,5.7245,5.7966,5.7936,5.7521,5.6856,5.764,5.7541,5.6907,5.769,5.7999,5.807,5.8857,5.9155,5.9269,6.0081,5.9895,5.9365,6.0115,6.0896,6.1563,6.1563,6.2101,6.2719,6.2719,6.2719,6.2719,6.2756,6.3356,6.4023,6.4059,6.464,6.5221,6.5258,6.5258,6.5251,6.5288,6.5288,6.5515,6.6329,6.6476,6.6703,6.748,6.7627,6.7627,6.7664,6.7627,6.7627,6.7627,6.7627,6.7627,6.7664,6.7664,6.7664,6.77,6.77,6.77,6.7664,6.7664,6.7664,6.7627,6.7627,6.7627,6.7627,6.7627,6.7627,6.7627,6.7627,6.7627,6.7627,6.7627,6.7627,0.0,0.0,4.6928,4.7421,4.7522,4.7718,4.8469,4.8638,4.8841,4.9593,4.9737,4.9973,5.0702,5.1026,5.1453,5.2169,5.2313,5.2578,5.3346,5.3244,5.3213,5.3484,5.3509,0.0,0.0,0.0,0.0,5.3881,5.3864,5.3864,5.3864,5.3864,5.433,5.5295,5.5345,5.5679,5.6431,5.6165,5.6058,5.6091,5.6589,5.6696,5.6503,5.6963,5.7073,5.6815,5.7081,5.7312,5.7549,5.7801,5.7921,5.7955,5.8222,5.8342,5.8514,5.9849,6.0167,5.9957,6.0287,6.0569,6.0877,6.1412,6.2154,6.2896,6.3479,6.4047,6.4444,6.4444,6.4671,6.4897,6.4897,6.5111,6.5441,6.5962,6.6102,6.6256,6.6776,6.6886,6.696,6.7253,6.729,6.7547,6.8348,6.8495,6.8678,6.9199,6.8825,6.8495,6.8495,6.8972,6.9272,6.9272,6.9272,6.9272,6.9272,6.9272,6.9272,6.9272,6.9272,6.9272,6.9272,6.9272,6.9272,6.9272,6.9272,6.9272,6.9272,6.9272,6.9272,6.9272,6.9272,6.9272,4.7496,4.7605,4.7699,4.8157,4.8293,4.8503,4.9221,4.939,4.9593,5.0338,5.0473,5.071,5.1446,5.1581,5.1852,5.2604,5.2739,5.29,5.3441,5.3509,5.3509,5.3509,5.3509,5.3509,0.0,0.0,0.0,5.3509,5.3754,5.389,5.389,5.4152,5.4712,5.5681,5.5698,5.5938,5.6419,5.6419,5.6304,5.608,5.6833,5.6944,5.6503,5.6987,5.7209,5.7171,5.7171,5.7611,5.8287,5.8287,5.8466,5.8703,5.8703,5.8703,5.881,5.9837,6.0232,6.0305,6.0952,6.1172,6.1258,6.1789,6.2318,6.2844,6.3377,6.3923,6.4358,6.4358,6.4771,6.5177,6.482,6.5451,6.6226,6.6409,6.6692,6.707,6.759,6.7921,6.8134,6.8134,6.8355,6.8722,6.9229,6.9339,6.9486,7.0007,6.9883,6.9662,6.9369,6.9779,7.0117,7.0117,7.0117,7.0117,7.0117,7.0117,7.0117,7.0117,7.0117,7.0117,7.0117,7.0117,7.0117,7.0117,7.0117,7.0117,7.0117,7.0117,7.0117,7.0117,7.0117,7.0117,4.8808,4.9011,4.9018,4.9044,4.9052,4.9255,4.9973,5.0143,5.0379,5.1108,5.1269,5.148,0.0,0.0,5.2604,5.3374,5.3509,5.3509,5.3509,5.3509,5.3509,0.0,0.0,0.0,0.0,0.0,0.0,5.3678,0.0,5.4676,5.4676,5.5336,5.5733,5.5767,5.5767,5.5767,5.58,5.58,5.6147,5.6858,5.7586,5.7924,5.7958,5.7958,5.7992,5.8026,5.8026,5.8423,5.9056,5.9056,5.9462,6.0114,6.0114,6.0114,6.0114,6.0148,6.0148,6.0377,6.2024,6.2524,6.2497,6.2538,6.2554,6.2597,6.2645,6.2689,6.2732,6.278,6.3911,6.4931,6.4127,6.5782,6.7407,6.6595,6.7062,6.7702,6.7743,6.8367,6.8917,6.8958,6.9596,7.0146,7.0146,7.0155,7.0164,7.0164,7.0745,7.0965,7.025,7.0183,7.022,7.022,7.022,7.022,7.022,7.022,7.022,7.022,7.022,7.022,7.022,7.022,7.022,7.022,7.022,7.022,7.022,7.022,7.022,7.022,7.022,7.022,4.8951,4.9011,4.912,4.9669,4.9838,4.9999,5.0736,5.0905,5.1141,5.1852,5.2021,5.2258,0.0,0.0,0.0,5.3484,5.3509,0.0,5.3509,5.3509,0.0,0.0,0.0,5.4338,5.4338,5.4997,0.0,0.0,5.5302,5.5437,5.5437,5.5606,5.5936,5.6486,5.6519,5.6799,5.734,5.7349,5.7442,5.762,5.7823,5.8195,5.8718,5.8718,5.9022,5.9539,5.9539,5.9641,5.98,5.98,5.9945,6.0114,6.0114,6.0114,6.0182,6.0757,6.0994,6.1129,6.2099,6.1695,6.0829,6.1502,6.21,6.2699,6.3295,6.3896,6.452,6.5225,6.5252,6.5137,6.5617,6.6128,6.6443,6.6224,6.6793,6.7589,6.8274,6.862,6.8952,6.9668,7.0433,7.0984,7.0984,7.0908,7.0848,7.0848,7.0437,7.0333,7.0908,7.1534,7.1908,7.1908,7.1908,7.1908,7.1908,7.1908,7.1908,7.1908,7.1908,7.1908,7.1908,7.1908,7.1908,7.1908,7.1908,7.1908,7.1908,7.1908,7.1908,7.1908,7.1908,7.1908,4.9011,4.9255,4.9593,5.0015,5.0346,5.0777,5.1514,5.1683,5.1919,5.2664,5.2841,0.0,0.0,0.0,0.0,0.0,0.0,0.0,5.3509,5.3788,5.3991,0.0,5.4634,0.0,5.5074,5.5741,5.6181,0.0,5.6181,5.6181,5.6181,5.6486,5.6867,5.7273,5.7282,5.7645,5.8389,5.8389,5.8558,5.8872,5.8872,5.9066,5.9462,5.9462,5.9699,6.0114,0.0,6.0317,6.0622,6.0622,6.0825,6.1105,6.1105,6.1105,6.1163,6.1603,6.1772,6.1839,6.2255,6.2052,6.1622,6.1789,6.213,6.2602,6.3043,6.3724,6.4441,6.497,6.5268,6.5444,6.5557,6.6107,6.663,6.6621,6.6957,6.7541,6.8514,6.8662,6.8872,6.9763,7.0299,7.058,7.058,7.052,7.0493,7.0493,7.04,7.0648,7.1631,7.1475,7.1283,7.1283,7.1656,7.1869,7.1869,7.2263,7.2488,7.2488,7.2488,7.2488,7.2488,7.2488,7.2488,7.2488,7.2488,7.2488,7.2488,7.2488,7.2488,7.2488,7.2488,7.2488,4.9112,4.9601,5.0143,5.0346,5.0871,5.1539,5.2291,5.2469,5.2672,5.3374,0.0,5.3509,5.3509,5.3509,5.3509,5.3509,0.0,5.3653,5.3653,5.4262,5.4744,5.4744,5.5403,5.5834,5.5834,5.6519,5.6934,5.6934,5.7036,5.7061,5.6934,5.7654,5.8094,5.8195,5.8195,5.849,5.9148,5.9158,5.9462,6.0114,6.0114,6.0148,6.025,6.025,6.0317,6.0419,0.0,0.0,6.1467,6.1467,6.1806,6.2391,6.2391,6.2458,6.256,6.256,6.2627,6.2695,6.2695,6.3125,6.3521,6.2797,6.2627,6.2695,6.2695,6.3159,6.3676,6.3782,6.4727,6.557,6.4938,6.5925,6.7077,6.7086,6.7165,6.749,6.8419,6.8657,6.8876,6.9566,6.9708,6.9743,6.9849,6.9742,6.9688,6.9794,7.0386,7.1072,7.1797,7.0924,7.0262,7.0369,7.1123,7.1612,7.1612,7.2362,7.2819,7.2819,7.2819,7.2819,7.2819,7.2819,7.2819,7.2819,7.2819,7.2819,7.2819,7.2819,7.2819,7.2819,7.2819,7.2819,4.9729,5.0007,5.0379,5.1623,5.2021,5.2325,5.3112,5.3272,0.0,0.0,0.0,5.3509,5.3509,5.3509,5.3509,5.3509,0.0,0.0,0.0,0.0,5.5496,0.0,0.0,0.0,0.0,0.0,0.0,0.0,0.0,5.8346,5.7755,5.8423,5.909,5.9708,5.9708,5.9776,5.9902,5.9902,5.9979,6.0114,6.0114,6.0452,6.1095,6.1095,6.1434,6.1985,6.1985,0.0,6.2221,6.2221,6.2289,6.2391,6.2391,6.2753,6.3318,6.3318,6.369,6.4208,6.4208,6.4309,6.4299,6.3555,6.3734,6.4208,6.4208,6.4309,6.4548,6.5273,6.5187,6.4968,6.5512,6.5818,6.5975,6.5985,6.6442,6.7134,6.8085,6.8932,6.9531,6.9672,6.9708,6.9876,7.0495,6.9965,6.9646,7.0262,6.9846,6.9498,6.9645,7.1613,7.3267,7.3917,7.4149,7.4232,7.4232,7.4396,7.447,7.447,7.447,7.447,7.447,7.447,7.447,7.447,7.447,7.447,7.447,7.447,7.447,7.447,7.447,7.447,5.0007,5.065,5.142,5.2131,5.2604,5.3044,5.3408,0.0,0.0,0.0,0.0,5.3509,5.3509,0.0,0.0,0.0,0.0,0.0,0.0,0.0,0.0,0.0,0.0,0.0,0.0,0.0,0.0,0.0,0.0,5.9259,5.8524,5.9158,5.9733,6.008,6.0114,6.0317,6.0723,6.0723,6.0926,6.1308,6.1308,6.1511,6.1873,6.1873,6.2086,6.2391,6.2391,0.0,6.2956,6.2956,6.3193,6.3531,6.3531,6.3768,6.4062,6.4062,6.4309,6.4613,6.4613,6.485,6.5121,6.4749,6.4613,6.4613,6.4613,6.4884,6.5267,6.5683,6.5769,6.5833,6.6254,6.6327,6.6383,6.6897,6.7267,6.7614,6.7984,6.8412,6.8907,6.9313,6.9382,6.951,6.9856,6.9536,6.9356,6.9709,6.9809,6.9988,7.0386,7.2181,7.2994,7.1981,7.2326,7.2619,7.2619,7.3524,7.4113,7.4113,7.4597,7.4903,7.4903,7.4903,7.4903,7.4903,7.4903,7.4903,7.4903,7.4903,7.4903,7.4903,7.4903,7.4903,5.0481,5.142,5.2334,5.2503,5.3036,5.3509,5.3509,5.3509,0.0,0.0,5.3509,5.3509,5.3509,0.0,0.0,0.0,0.0,0.0,0.0,0.0,0.0,0.0,0.0,0.0,0.0,0.0,0.0,0.0,0.0,0.0,5.952,6.0037,6.0419,6.0588,6.0588,6.0892,6.1535,6.1535,6.1839,6.2391,6.2391,6.2492,6.2627,6.2627,6.2719,6.2864,6.2864,0.0,0.0,6.3758,6.4062,6.4613,6.4613,6.4681,6.485,6.485,6.4952,6.5087,6.5087,6.5459,6.5943,6.5943,6.5527,6.5087,6.5087,6.5493,6.5943,6.5943,6.6328,6.6802,6.6802,6.6802,6.7022,6.7924,6.8261,6.833,6.8188,6.8166,6.8335,6.8977,6.9113,6.9147,6.9316,6.935,6.9383,6.9553,7.0193,7.0884,7.1536,7.226,7.1931,6.9806,7.064,7.1404,7.1604,7.3057,7.4005,7.4231,7.4986,7.5417,7.5417,7.5417,7.5417,7.5417,7.5417,7.5417,7.5417,7.5417,7.5417,7.5417,7.5417,7.5417,5.1725,5.2198,5.2469,5.3213,5.3441,5.3509,5.3509,0.0,0.0,5.3509,5.3509,5.3509,5.3509,0.0,0.0,0.0,0.0,5.6621,0.0,0.0,0.0,0.0,0.0,0.0,0.0,0.0,0.0,0.0,0.0,0.0,6.1095,6.1153,6.1501,6.2154,6.2188,6.2221,6.2289,6.2289,6.2323,6.2391,6.2391,6.2753,6.3409,6.3409,6.3758,6.441,6.441,0.0,0.0,6.4512,6.4546,6.4613,6.4613,6.503,6.5605,6.5605,6.6,6.6599,6.6599,6.6633,6.67,6.67,6.6667,6.6599,6.6599,6.6667,6.67,6.67,6.6768,6.6802,6.6802,6.6802,6.7003,6.7752,6.8485,6.8995,6.8999,6.8977,6.9011,6.9079,6.9113,6.9316,6.9969,7.0105,7.0342,7.0996,7.1187,7.1254,7.1322,7.1422,7.1365,7.112,7.2804,7.4313,7.5251,7.5476,7.598,7.687,7.7023,7.7061,7.7061,7.7061,7.7061,7.7061,7.7061,7.7061,7.7061,7.7061,7.7061,7.7061,7.7061,7.7061,5.2131,5.2664,5.3103,5.3416,5.3509,5.3509,5.3509,0.0,5.3509,5.3509,5.3509,5.3653,5.4093,5.4406,5.4879,0.0,0.0,0.0,5.7408,0.0,0.0,0.0,0.0,0.0,0.0,0.0,0.0,0.0,0.0,0.0,6.1951,6.1951,6.2086,6.2391,6.2391,6.2618,6.3047,6.3047,6.3294,6.37,6.37,6.3869,6.4164,6.4164,6.4333,6.4613,6.4613,0.0,0.0,6.5266,6.5527,6.5922,6.5922,6.6092,6.6373,6.6373,6.6531,6.6802,6.6802,6.6802,6.6869,6.7309,6.7455,6.7377,6.6937,6.6802,6.6903,6.7354,6.7455,6.758,6.8053,6.8189,6.8267,6.8538,6.8876,6.9214,6.9665,6.9766,6.9891,7.0353,7.0421,7.0522,7.0804,7.0872,7.0973,7.1267,7.13,7.13,7.13,7.13,7.13,7.13,7.2036,7.2655,7.3064,7.367,7.4168,7.4572,7.571,7.6388,7.6388,7.698,7.7281,7.7281,7.7281,7.7281,7.7281,7.7281,7.7281,7.7281,7.7281,7.7281,5.2604,5.3069,5.3509,5.3509,5.3509,5.3509,0.0,5.3509,5.3509,5.3509,5.3687,5.3991,5.4507,5.4947,5.5581,5.663,5.6968,5.7374,5.8118,5.8684,5.909,0.0,0.0,0.0,0.0,0.0,0.0,0.0,0.0,0.0,6.3033,6.3033,6.2966,6.2719,6.2932,6.3294,6.3825,6.3825,6.4096,6.4613,6.4613,6.4715,6.4918,6.4918,6.5053,6.5256,0.0,0.0,0.0,6.6045,6.6339,6.6802,6.6802,6.6802,6.6802,6.6802,6.6937,6.714,6.714,6.7275,6.758,6.8098,6.8267,6.8166,6.7647,6.7478,6.758,6.8098,6.8267,6.8402,6.8944,6.9248,6.9417,6.9417,6.9586,6.9891,7.0398,7.0534,7.0669,7.1199,7.13,7.13,7.13,7.13,7.13,7.13,7.13,7.13,7.13,7.13,7.13,7.13,7.13,7.1401,7.1732,7.2406,7.2931,7.3222,7.4572,7.5369,7.5369,7.6313,7.6848,7.6848,7.7165,7.7281,7.7281,7.7281,7.7281,7.7281,7.7281,7.7281,5.3272,5.3475,5.3509,5.3509,5.3509,5.3509,0.0,5.3509,5.3509,5.3509,5.4093,5.4575,5.4609,5.5793,5.6799,5.6799,5.7417,0.0,5.8878,5.9013,0.0,0.0,0.0,0.0,0.0,0.0,0.0,0.0,0.0,0.0,6.4546,6.458,6.4241,6.3511,6.4197,6.458,6.458,6.458,6.458,6.4613,6.4613,6.4986,6.5683,6.5683,6.6102,0.0,0.0,0.0,0.0,6.6802,6.6791,6.6802,6.6802,6.6802,6.6802,6.6802,6.7242,6.7895,6.7895,6.8402,6.9079,6.9079,6.9079,6.9079,6.9079,6.9079,6.9079,6.9079,6.9079,6.9079,6.9113,6.962,7.0172,7.0172,7.0737,7.13,7.13,7.13,7.13,7.13,7.13,7.13,7.13,7.13,7.13,7.13,7.13,7.13,7.13,7.13,7.13,7.13,7.13,7.171,7.2683,7.2787,7.3222,7.4206,7.4291,7.4301,7.4301,7.5299,7.5831,7.5831,7.6793,7.7281,7.7281,7.7281,7.7281,7.7281,7.7281,7.7281,5.3441,5.3509,5.3509,5.3509,5.3509,5.3509,5.3509,5.3509,5.3644,5.4169,5.4439,5.4913,5.5919,5.6494,5.6968,5.7476,5.8186,5.8718,0.0,0.0,0.0,0.0,0.0,0.0,0.0,0.0,0.0,0.0,0.0,0.0,6.458,6.5097,6.5019,6.4275,6.4478,6.485,6.5368,6.5368,6.5595,6.6092,6.6092,6.6227,6.643,6.643,6.6565,0.0,0.0,0.0,0.0,6.6802,6.7106,6.7557,6.7557,6.7884,6.8358,6.8358,6.8538,6.8707,6.8707,6.8876,6.918,6.9699,6.9868,6.9969,7.0455,6.988,6.9214,6.9699,7.0195,7.059,7.059,7.0759,7.0962,7.0962,7.1131,7.13,7.13,7.13,7.13,7.13,7.13,7.13,7.13,7.13,7.13,7.13,7.13,7.13,7.13,7.13,7.13,7.13,7.13,7.1412,7.1765,7.1753,7.1917,7.2238,7.289,7.3272,7.3272,7.4903,7.5787,7.5787,7.6793,7.7281,7.7281,7.7281,7.7281,7.7281,7.7281,7.7281,0.0,5.3509,5.3509,5.3509,5.3509,0.0,5.3509,5.3721,5.4059,5.4507,5.5049,5.5716,5.663,5.7036,5.7442,5.8195,5.8684,5.9191,5.98,0.0,0.0,0.0,0.0,0.0,0.0,0.0,0.0,0.0,0.0,0.0,6.5425,6.5865,6.5899,6.5449,6.5415,6.5662,6.6102,6.6112,6.6339,6.6802,6.6802,6.6802,6.6802,6.6802,0.0,0.0,0.0,0.0,0.0,6.7681,6.7952,6.8335,6.8335,6.8673,6.9113,6.9113,6.9282,6.9519,6.9519,6.9688,7.0026,7.0466,7.0601,7.0703,7.1165,7.0658,7.0026,7.05,7.0939,7.13,7.13,7.13,7.13,7.13,7.13,7.13,7.13,7.13,7.13,7.13,7.13,7.13,7.13,7.13,7.13,7.13,7.13,7.13,7.13,7.13,7.13,7.13,7.13,7.13,7.13,7.13,7.13,7.13,7.1895,7.2225,7.2225,7.3792,7.4674,7.4674,7.5676,7.6172,7.6172,7.6547,7.6948,7.7281,7.7281,7.7281,0.0,5.3509,5.3509,5.3509,5.3509,5.3509,5.3577,5.4101,0.0,5.4744,5.5852,5.6833,5.6867,5.7476,5.8195,5.8887,5.9081,5.9656,6.1086,6.14,0.0,0.0,0.0,0.0,0.0,0.0,0.0,0.0,0.0,0.0,6.6768,6.6802,6.6802,6.6802,6.6802,6.6802,6.6802,6.6802,6.6802,6.6802,6.6869,6.6869,6.6869,6.6937,0.0,0.0,0.0,0.0,0.0,6.9113,6.9147,6.918,6.918,6.9214,6.9248,6.9248,6.9688,7.0274,7.0274,7.0737,7.13,7.13,7.13,7.13,7.13,7.13,7.13,7.13,7.13,7.13,7.13,7.13,7.13,7.13,7.13,7.13,7.13,7.13,7.13,7.13,7.13,7.13,7.13,7.13,7.13,7.13,7.13,7.13,7.13,7.13,7.13,7.13,7.13,7.13,7.13,7.13,7.13,7.13,7.13,7.13,7.13,7.2257,7.2797,7.2797,7.384,7.4432,7.4507,7.5457,7.6379,7.7281,7.7281,7.7281,5.3509,0.0,5.3509,5.3509,5.3509,5.3653,0.0,5.4473,0.0,0.0,0.0,5.6968,5.7552,5.8254,5.8786,5.8979,6.0003,6.0883,6.1264,0.0,0.0,0.0,0.0,0.0,0.0,0.0,0.0,0.0,0.0,6.6633,6.6802,6.6802,6.6802,6.6802,6.6802,6.6802,6.6802,6.6802,6.6802,6.6802,6.7377,6.7658,6.7658,6.8267,0.0,0.0,0.0,0.0,6.9113,6.9113,6.9417,6.9936,6.9936,7.0297,7.0793,7.0793,7.0894,7.103,7.103,7.1165,7.13,7.13,7.13,7.13,7.13,7.13,7.13,7.13,7.13,7.13,7.13,7.13,7.13,7.13,7.13,7.13,7.13,7.13,7.13,7.13,7.13,7.13,7.13,7.13,7.13,7.13,7.13,7.13,7.13,7.13,7.13,7.13,7.13,7.13,7.13,7.13,7.13,7.13,7.13,7.13,7.13,7.2257,7.2797,7.2797,7.4544,7.584,7.6579,7.6824,7.7058,7.7281,7.7281,7.7281,5.3509,5.3509,5.3509,5.3509,5.3754,5.4101,5.4507,0.0,0.0,0.0,0.0,0.0,5.8254,0.0,0.0,5.9936,6.0757,6.1535,0.0,0.0,0.0,0.0,0.0,0.0,0.0,0.0,0.0,0.0,0.0,6.6802,6.6802,6.7106,6.7309,6.7309,6.7647,6.7681,6.7309,6.7309,6.7478,6.785,6.8267,6.8436,6.847,6.891,6.9282,0.0,0.0,0.0,7.0117,7.0117,7.0331,7.0703,7.0703,7.0962,7.13,7.13,7.13,7.13,7.13,7.13,7.13,7.13,7.13,7.13,7.13,7.13,7.13,7.13,7.13,7.13,7.13,7.13,7.13,7.13,7.13,7.13,7.13,7.13,7.13,7.13,7.13,7.13,7.13,7.13,7.13,7.13,7.13,7.13,7.13,7.13,7.13,7.13,7.13,7.13,7.13,7.13,7.13,7.13,7.13,7.13,7.13,7.1819,7.212,7.212,7.3161,7.4225,7.5254,7.5254,7.5475,7.5917,7.5917,7.5917,5.3509,5.3585,5.3687,5.3687,5.4126,5.4642,5.4879,0.0,0.0,0.0,0.0,0.0,0.0,0.0,0.0,0.0,0.0,0.0,0.0,0.0,0.0,0.0,0.0,0.0,0.0,0.0,0.0,0.0,0.0,6.6971,6.6971,6.7692,6.8098,6.8098,6.8741,6.8842,6.8267,6.8132,6.8436,6.9113,6.9214,6.9282,6.9282,6.9372,6.9789,0.0,0.0,0.0,7.13,7.13,7.13,7.13,7.13,7.13,7.13,7.13,7.13,7.13,7.13,7.13,7.13,7.13,7.13,7.13,7.13,7.13,7.13,7.13,7.13,7.13,7.13,7.13,7.13,7.13,7.13,7.13,7.13,7.13,7.13,7.13,7.13,7.13,7.13,7.13,7.13,7.13,7.13,7.13,7.13,7.13,7.13,7.13,7.13,7.13,7.13,7.13,7.13,7.13,7.13,7.13,7.13,7.13,7.1379,7.1534,7.1534,7.2013,7.3044,7.3044,7.3472,7.4291,7.4451,7.4517,5.3509,5.3957,5.4439,5.4439,5.4507,5.4913,0.0,0.0,0.0,0.0,0.0,0.0,0.0,0.0,0.0,0.0,0.0,0.0,0.0,0.0,0.0,0.0,0.0,0.0,0.0,0.0,0.0,0.0,0.0,6.7726,6.7726,6.847,6.891,6.891,6.9045,6.935,6.9834,6.9214,6.8977,6.9113,6.9722,7.0037,7.0037,7.0658,7.103,0.0,0.0,7.1199,7.13,7.13,7.13,7.13,7.13,7.13,7.13,7.13,7.13,7.13,7.13,7.13,7.13,7.13,7.13,7.13,7.13,7.13,7.13,7.13,7.13,7.13,7.13,7.13,7.13,7.13,7.13,7.13,7.13,7.13,7.13,7.13,7.13,7.13,7.13,7.13,7.13,7.13,7.13,7.13,7.13,7.13,7.13,7.13,7.13,7.13,7.13,7.13,7.13,7.13,7.13,7.13,7.13,7.13,7.171,7.2551,7.2572,7.3074,7.4062,7.4062,7.4139,7.431,7.5156,7.5571,5.3509,5.4033,5.471,5.5108,5.548,5.5953,0.0,0.0,0.0,0.0,0.0,0.0,0.0,0.0,0.0,0.0,0.0,0.0,0.0,0.0,0.0,0.0,0.0,0.0,0.0,0.0,0.0,0.0,0.0,0.0,6.8538,6.9282,6.9699,6.9699,7.0094,7.0455,7.0804,7.0466,7.0286,7.0286,7.0635,7.0804,7.0804,7.1131,7.13,7.13,0.0,7.13,7.13,7.13,7.13,7.13,7.13,7.13,7.13,7.13,7.13,7.13,7.13,7.13,7.13,7.13,7.13,7.13,7.13,7.13,7.13,7.13,7.13,7.13,7.13,7.13,7.13,7.13,7.13,7.13,7.13,7.13,7.13,7.13,7.13,7.13,7.13,7.13,7.13,7.13,7.13,7.13,7.13,7.13,7.13,7.13,7.13,7.13,7.13,7.13,7.13,7.13,7.13,7.13,7.13,7.13,7.1523,7.1969,7.198,7.2228,7.2676,7.2676,7.2676,7.2686,7.3166,7.3362,5.3721,5.4296,5.504,0.0,0.0,0.0,0.0,0.0,0.0,0.0,0.0,0.0,0.0,0.0,0.0,0.0,0.0,0.0,0.0,0.0,0.0,0.0,0.0,0.0,0.0,0.0,0.0,0.0,0.0,0.0,6.935,7.006,7.0477,7.0477,7.1007,7.13,7.13,7.13,7.13,7.13,7.13,7.13,7.13,7.13,7.13,7.13,7.13,7.13,7.13,7.13,7.13,7.13,7.13,7.13,7.13,7.13,7.13,7.13,7.13,7.13,7.13,7.13,7.13,7.13,7.13,7.13,7.13,7.13,7.13,7.13,7.13,7.13,7.13,7.13,7.13,7.13,7.13,7.13,7.13,7.13,7.13,7.13,7.13,7.13,7.13,7.13,7.13,7.13,7.13,7.13,7.13,7.13,7.13,7.13,7.13,7.13,7.13,7.13,7.13,7.13,7.13,7.13,7.13,7.13,7.13,7.13,7.13,7.13,7.13,7.13,7.1546,7.1644,5.4329,5.5065,5.58,5.6553,0.0,0.0,0.0,0.0,0.0,0.0,0.0,0.0,0.0,0.0,0.0,0.0,0.0,0.0,0.0,0.0,0.0,0.0,0.0,0.0,0.0,0.0,0.0,0.0,0.0,0.0,7.0105,7.0838,7.1233,7.1233,7.1267,7.13,7.13,7.13,7.13,7.13,7.13,7.13,7.13,7.13,7.13,7.13,7.13,7.13,7.13,7.13,7.13,7.13,7.13,7.13,7.13,7.13,7.13,7.13,7.13,7.13,7.13,7.13,7.13,7.13,7.13,7.13,7.13,7.13,7.13,7.13,7.13,7.13,7.13,7.13,7.13,7.13,7.13,7.13,7.13,7.13,7.13,7.13,7.13,7.13,7.13,7.13,7.13,7.13,7.13,7.13,7.13,7.13,7.13,7.13,7.13,7.13,7.13,7.13,7.13,7.13,7.13,7.13,7.13,7.13,7.13,7.13,7.13,7.13,7.13,7.1323,7.2257,7.2673,5.4507,5.548,5.6452,0.0,0.0,0.0,0.0,0.0,0.0,0.0,0.0,0.0,0.0,0.0,0.0,0.0,0.0,0.0,0.0,0.0,0.0,0.0,0.0,0.0,0.0,0.0,0.0,0.0,0.0,0.0,7.0861,7.1131,7.13,7.13,7.13,7.13,7.13,7.13,7.13,7.13,7.13,7.13,7.13,7.13,7.13,7.13,7.13,7.13,7.13,7.13,7.13,7.13,7.13,7.13,7.13,7.13,7.13,7.13,7.13,7.13,7.13,7.13,7.13,7.13,7.13,7.13,7.13,7.13,7.13,7.13,7.13,7.13,7.13,7.13,7.13,7.13,7.13,7.13,7.13,7.13,7.13,7.13,7.13,7.13,7.13,7.13,7.13,7.13,7.13,7.13,7.13,7.13,7.1706,7.2157,7.2631,7.2665,7.2665,7.2665,7.2225,7.1988,7.1988,7.2428,7.2665,7.2665,7.2665,7.2665,7.2665,7.2665,7.2665,7.2676,7.3061,7.3239,5.4871,5.5852,5.6867,0.0,0.0,0.0,0.0,0.0,0.0,0.0,0.0,0.0,0.0,0.0,0.0,0.0,0.0,0.0,0.0,0.0,0.0,0.0,0.0,0.0,0.0,0.0,0.0,0.0,0.0,0.0,0.0,7.13,7.13,7.13,7.13,7.13,7.13,7.13,7.13,7.13,7.13,7.13,7.13,7.13,7.13,7.13,7.13,7.13,7.13,7.13,7.13,7.13,7.13,7.13,7.13,7.13,7.13,7.13,7.13,7.13,7.13,7.13,7.13,7.13,7.13,7.13,7.13,7.13,7.13,7.13,7.13,7.13,7.13,7.13,7.13,7.13,7.13,7.13,7.13,7.13,7.13,7.13,7.13,7.13,7.13,7.13,7.13,7.1402,7.1605,7.1639,7.174,7.1977,7.2462,7.2947,7.3454,7.3488,7.3488,7.3488,7.324,7.3003,7.2766,7.3218,7.3488,7.3488,7.3488,7.3488,7.3488,7.3488,7.3488,7.3488,7.3488,7.3488,5.5496,5.6249,0.0,0.0,0.0,0.0,0.0,0.0,0.0,0.0,0.0,0.0,0.0,0.0,0.0,0.0,0.0,0.0,0.0,0.0,0.0,0.0,0.0,0.0,0.0,0.0,0.0,0.0,0.0,0.0,0.0,7.13,7.13,7.13,7.13,7.13,7.13,7.13,7.13,7.13,7.13,7.13,7.13,7.13,7.13,7.13,7.13,7.13,7.13,7.13,7.13,7.13,7.13,7.13,7.13,7.13,7.13,7.13,7.13,7.13,7.13,7.13,7.13,7.13,7.13,7.13,7.13,7.13,7.13,7.13,7.13,7.13,7.13,7.13,7.13,7.13,7.13,7.13,7.13,7.13,7.13,7.13,7.13,7.13,7.1289,7.1289,7.1334,7.1571,7.2326,7.2428,7.2699,7.3421,7.3522,7.3522,7.3522,7.3522,7.3522,7.3522,7.4221,7.4277,7.3556,7.3522,7.3522,7.3522,7.3522,7.3522,7.3522,7.3522,7.3522,7.3522,7.3522,7.3522,5.6283,5.7002,0.0,0.0,0.0,0.0,0.0,0.0,0.0,0.0,0.0,0.0,0.0,0.0,0.0,0.0,0.0,0.0,0.0,0.0,0.0,0.0,0.0,0.0,0.0,0.0,0.0,0.0,0.0,0.0,0.0,7.13,7.13,7.13,7.13,7.13,7.13,7.13,7.13,7.13,7.13,7.13,7.13,7.13,7.13,7.13,7.13,7.13,7.13,7.13,7.13,7.13,7.13,7.13,7.13,7.13,7.13,7.13,7.13,7.13,7.13,7.13,7.13,7.13,7.13,7.13,7.13,7.13,7.13,7.13,7.13,7.13,7.13,7.13,7.13,7.13,7.13,7.13,7.13,7.13,7.13,7.13,7.13,7.174,7.209,7.209,7.2529,7.2947,7.315,7.3184,7.3454,7.4187,7.4289,7.4492,7.4999,7.5045,7.5045,7.5045,7.5236,7.5033,7.4289,7.4762,7.5045,7.5045,7.5045,7.5045,7.5045,7.5045,7.5045,7.5045,7.5045,7.5045,5.6489,0.0,0.0,0.0,0.0,0.0,0.0,0.0,0.0,0.0,0.0,0.0,0.0,0.0,0.0,0.0,0.0,0.0,0.0,0.0,0.0,0.0,0.0,0.0,0.0,0.0,0.0,0.0,0.0,0.0,0.0,7.13,7.13,7.13,7.13,7.13,7.13,7.13,7.13,7.13,7.13,7.13,7.13,7.13,7.13,7.13,7.13,7.13,7.13,7.13,7.13,7.13,7.13,7.13,7.13,7.13,7.13,7.13,7.13,7.13,7.13,7.13,7.13,7.13,7.13,7.13,7.13,7.13,7.13,7.13,7.13,7.13,7.13,7.13,7.13,7.13,7.13,7.13,7.13,7.13,7.1537,7.174,7.174,7.236,7.2845,7.2845,7.3443,7.395,7.395,7.4199,7.4537,7.4987,7.5021,7.5236,7.5676,7.5709,7.5709,7.5709,7.5709,7.5506,7.5055,7.5473,7.5709,7.5709,7.5709,7.5709,7.5709,7.5709,7.5709,7.5709,7.5709,7.5709,5.638,0.0,0.0,0.0,0.0,0.0,0.0,0.0,0.0,0.0,0.0,0.0,0.0,0.0,0.0,0.0,0.0,0.0,0.0,0.0,0.0,0.0,0.0,0.0,0.0,0.0,0.0,0.0,0.0,0.0,0.0,7.13,7.13,7.13,7.13,7.13,7.13,7.13,7.13,7.13,7.13,7.13,7.13,7.13,7.13,7.13,7.13,7.13,7.13,7.13,7.13,7.13,7.13,7.13,7.13,7.13,7.13,7.13,7.13,7.13,7.13,7.13,7.13,7.13,7.13,7.13,7.13,7.13,7.13,7.13,7.13,7.13,7.13,7.13,7.13,7.13,7.13,7.1368,7.1402,7.1402,7.1988,7.2496,7.2496,7.3116,7.3624,7.3691,7.4255,7.4683,7.4683,7.5303,7.5709,7.5709,7.5709,7.5709,7.5709,7.5709,7.5709,7.5709,7.5709,7.5709,7.5709,7.5709,7.5709,7.5709,7.5709,7.5709,7.5709,7.5709,7.5709,7.5709,7.5709,7.5709,0.0,5.794,0.0,0.0,0.0,0.0,0.0,0.0,0.0,0.0,0.0,0.0,0.0,0.0,0.0,0.0,0.0,0.0,0.0,0.0,0.0,0.0,0.0,0.0,0.0,0.0,0.0,0.0,0.0,0.0,7.13,7.13,7.13,7.13,7.13,7.13,7.13,7.13,7.13,0.0,7.13,7.13,7.13,7.13,7.13,7.13,7.13,7.13,7.13,7.13,7.13,7.13,7.13,7.13,7.13,7.13,7.13,7.13,7.13,7.13,7.13,7.13,7.13,7.13,7.13,7.13,7.13,7.13,7.13,7.13,7.13,7.13,7.13,7.13,7.13,7.13,7.13,7.174,7.2157,7.2157,7.2766,7.3251,7.3251,7.3883,7.4559,7.5134,7.5371,7.5473,7.5473,7.5608,7.5709,7.5709,7.5709,7.5709,7.5709,7.5709,7.5709,7.5709,7.5709,7.5709,7.5709,7.5709,7.5709,7.5709,7.5709,7.5709,7.5709,7.5709,7.5709,7.5709,7.5709,7.5709,0.0,0.0,0.0,0.0,0.0,0.0,0.0,0.0,0.0,0.0,0.0,0.0,0.0,0.0,0.0,0.0,0.0,0.0,0.0,0.0,0.0,0.0,0.0,0.0,0.0,0.0,0.0,0.0,0.0,7.13,7.13,7.13,7.13,7.13,7.13,7.13,7.13,7.13,7.13,7.13,7.13,7.13,7.13,7.13,7.13,7.13,7.13,7.13,7.13,7.13,7.13,7.13,7.13,7.13,7.13,7.13,7.13,7.13,7.13,7.13,7.13,7.13,7.13,7.13,7.13,7.13,7.13,7.13,7.13,7.13,7.13,7.1571,7.1842,7.1842,7.1842,7.1842,7.1842,7.2394,7.2947,7.2947,7.351,7.4018,7.4018,7.4627,7.527,7.5642,7.5709,7.5709,7.5709,7.5709,7.5709,7.5709,7.5709,7.5709,7.5709,7.5709,7.5709,7.5709,7.5709,7.5709,7.5709,7.5709,7.5709,7.5709,7.5709,7.5709,7.5709,7.5709,7.5709,7.5709,7.5709,7.5709,0.0,0.0,0.0,0.0,0.0,0.0,0.0,0.0,0.0,0.0,0.0,0.0,0.0,0.0,0.0,0.0,0.0,0.0,0.0,0.0,0.0,0.0,0.0,0.0,0.0,0.0,0.0,0.0,0.0,7.13,7.13,7.13,7.13,7.13,7.13,7.13,7.13,7.13,7.13,7.13,7.13,7.13,7.13,7.13,7.13,7.13,7.13,7.13,7.13,7.13,7.13,7.13,7.13,7.13,7.13,7.13,7.13,7.13,7.13,7.13,7.13,7.13,7.13,7.13,7.13,7.13,7.13,7.13,7.1402,7.1503,7.1503,7.2056,7.2597,7.2597,7.2699,7.2732,7.2631,7.3184,7.3691,7.3691,7.4289,7.4784,7.4784,7.5303,7.5709,7.5709,7.5709,7.5709,7.5709,7.5709,7.5709,7.5709,7.5709,7.5709,7.5709,7.5709,7.5709,7.5709,7.5709,7.5709,7.5709,7.5709,7.5709,7.5709,7.5709,7.5709,7.5709,7.5709,7.5709,7.5709,7.5709,7.5709,0.0,0.0,6.0671,0.0,6.0924,0.0,0.0,0.0,0.0,0.0,0.0,0.0,0.0,0.0,0.0,0.0,0.0,0.0,0.0,0.0,0.0,0.0,0.0,0.0,0.0,0.0,0.0,0.0,7.13,7.13,7.13,7.13,7.13,7.13,7.13,7.13,7.13,7.13,7.13,7.13,7.13,7.13,7.13,7.13,7.13,7.13,7.13,7.13,7.13,7.13,7.13,7.13,7.13,7.13,7.13,7.13,7.13,7.13,7.13,7.13,7.13,7.13,7.13,7.13,7.13,7.13,7.13,7.13,7.174,7.2259,7.2259,7.28,7.3353,7.3353,7.3849,7.4119,7.3488,7.3916,7.4446,7.4446,7.5067,7.554,7.554,7.5642,7.5709,7.5709,7.5709,7.5709,7.5709,7.5709,7.5709,7.5709,7.5709,7.5709,7.5709,7.5709,7.5709,7.5709,7.5709,7.5709,7.5709,7.5709,7.5709,7.5709,7.5709,7.5709,7.5709,7.5709,7.5709,7.5709,7.5709,7.5709,5.859,5.9755,6.0783,0.0,6.1546,6.198,6.4142,0.0,6.3434,6.3782,6.4591,6.4908,6.3774,6.4181,6.5094,6.6343,6.6763,0.0,0.0,0.0,0.0,0.0,0.0,0.0,0.0,0.0,0.0,0.0,7.13,7.13,7.13,7.13,7.13,7.13,7.13,7.13,7.13,7.13,7.13,7.13,7.13,7.13,7.13,7.13,7.13,7.13,7.13,7.13,7.13,7.13,7.13,7.13,7.13,7.13,7.13,7.13,7.13,7.13,7.13,7.13,7.13,7.13,7.13,7.13,7.13,7.1605,7.1909,7.1909,7.2462,7.3015,7.3015,7.3544,7.4119,7.4119,7.4695,7.5134,7.4808,7.4999,7.5236,7.5236,7.5473,7.5709,7.5709,7.5709,7.5709,7.5709,7.5709,7.5709,7.5709,7.5709,7.5709,7.5709,7.5709,7.5709,7.5709,7.5709,7.5709,7.5709,7.5709,7.5709,7.5709,7.5709,7.5709,7.5709,7.5709,7.5709,7.5709,7.5709,7.5709,7.5709,7.5709,7.5709,0.0,0.0,6.0228,6.1414,6.162,6.1874,0.0,0.0,6.2539,0.0,6.3149,6.35,6.3495,6.426,6.5167,6.5975,6.697,6.7419,6.6751,0.0,0.0,0.0,0.0,0.0,0.0,0.0,0.0,0.0,7.13,7.13,7.13,7.13,7.13,7.13,7.13,7.13,7.13,7.13,7.13,7.13,7.13,7.13,7.13,7.13,7.13,7.13,7.13,7.13,7.13,7.13,7.13,7.13,7.13,7.13,7.13,7.13,7.13,7.13,7.13,7.13,7.13,7.13,7.1436,7.1571,7.1571,7.209,7.2665,7.2665,7.3218,7.3793,7.3793,7.4322,7.4886,7.4886,7.5303,7.5709,7.5709,7.5709,7.5709,7.5709,7.5709,7.5709,7.5709,7.5709,7.5709,7.5709,7.5709,7.5709,7.5709,7.5709,7.5709,7.5709,7.5709,7.5709,7.5709,7.5709,7.5709,7.5709,7.5709,7.5709,7.5709,7.5709,7.5709,7.5709,7.5709,7.5709,7.5709,7.5709,7.5709,7.5709,7.5709,7.5709,0.0,5.9045,0.0,6.1347,6.0135,0.0,0.0,0.0,6.1277,6.1921,6.2094,6.2122,6.218,6.322,6.4505,6.5874,6.4586,6.3831,6.506,6.5138,6.5607,0.0,0.0,0.0,0.0,0.0,0.0,0.0,7.13,7.13,7.13,7.13,7.13,7.13,7.13,7.13,7.13,7.13,7.13,7.13,7.13,7.13,7.13,7.13,7.13,7.13,7.13,7.13,7.13,7.13,7.13,7.13,7.13,7.13,7.13,7.13,7.13,7.13,7.13,7.13,7.13,7.13,7.1774,7.2326,7.2326,7.2879,7.3454,7.3454,7.395,7.4547,7.4547,7.51,7.5642,7.5642,7.5676,7.5709,7.5709,7.5709,7.5709,7.5709,7.5709,7.5709,7.5709,7.5709,7.5709,7.5709,7.5709,7.5709,7.5709,7.5709,7.5709,7.5709,7.5709,7.5709,7.5709,7.5709,7.5709,7.5709,7.5709,7.5709,7.5709,7.5709,7.5709,7.5709,7.5709,7.5709,7.5709,7.5709,7.5709,7.5709,7.5709,7.5709,0.0,0.0,0.0,6.1297,6.1853,6.175,6.1726,6.2008,6.2241,6.2048,6.1697,6.155,6.2011,6.3188,6.4095,6.4166,6.429,6.4265,6.3874,6.4568,6.5287,6.5781,0.0,0.0,0.0,0.0,0.0,0.0,0.0,7.0333,7.1255,7.13,7.13,7.13,7.13,7.13,7.13,7.13,7.13,7.13,7.13,7.13,7.13,7.13,7.13,7.13,7.13,7.13,7.13,7.13,7.13,7.13,7.13,7.13,7.13,7.13,7.13,7.13,7.13,7.13,7.1368,7.1842,7.2191,7.2496,7.2981,7.3612,7.4221,7.4221,7.4728,7.5303,7.5303,7.5506,7.5709,7.5709,7.5709,7.5709,7.5709,7.5709,7.5709,7.5709,7.5709,7.5709,7.5709,7.5709,7.5709,7.5709,7.5709,7.5709,7.5709,7.5709,7.5709,7.5709,7.5709,7.5709,7.5709,7.5709,7.5709,7.5709,7.5709,7.5709,7.5709,7.5709,7.5709,7.5709,7.5709,7.5709,7.5709,7.5709,7.5709,7.5709,7.5709,7.5709,5.9014,0.0,0.0,0.0,6.1897,6.1892,6.0645,6.1219,6.1962,6.1756,6.1575,6.1642,6.2301,6.3164,6.3618,6.3176,6.3845,6.4111,6.3237,6.3874,6.4609,6.506,6.6699,0.0,0.0,0.0,0.0,0.0,0.0,0.0,7.1233,7.13,7.13,7.13,7.13,7.13,7.13,7.13,7.13,7.13,7.13,7.13,7.13,7.13,7.13,7.13,7.13,7.13,7.13,7.13,7.13,7.13,7.13,7.13,7.13,7.13,7.13,7.1334,7.1571,7.1672,7.1774,7.2529,7.2935,7.324,7.3713,7.439,7.4953,7.4953,7.5337,7.5709,7.5709,7.5709,7.5709,7.5709,7.5709,7.5709,7.5709,7.5709,7.5709,7.5709,7.5709,7.5709,7.5709,7.5709,7.5709,7.5709,7.5709,7.5709,7.5709,7.5709,7.5709,7.5709,7.5709,7.5709,7.5709,7.5709,7.5709,7.5709,7.5709,7.5709,7.5709,7.5709,7.5811,7.6082,7.6082,7.6217,7.6454,7.6217,7.6082,7.6115,7.6364,7.6454,0.0,0.0,0.0,0.0,0.0,0.0,5.9129,0.0,6.0321,6.0984,6.1642,6.2315,6.2988,6.3108,6.3108,6.3108,6.3108,6.3108,6.3108,6.3137,6.3649,6.495,6.5124,6.5674,0.0,0.0,0.0,0.0,6.9157,6.9763,7.1233,7.13,7.13,7.13,7.13,7.13,7.13,7.13,7.13,7.13,7.13,7.13,7.13,7.13,7.13,7.13,7.13,7.13,7.13,7.13,7.13,7.13,7.13,7.13,7.13,7.1334,7.1334,7.1436,7.2191,7.2428,7.2563,7.3285,7.4018,7.4615,7.4615,7.5122,7.5709,7.5709,7.5709,7.5709,7.5709,7.5709,7.5709,7.5709,7.5709,7.5709,7.5709,7.5709,7.5709,7.5709,7.5709,7.5709,7.5709,7.5709,7.5709,7.5709,7.5709,7.5709,7.5709,7.5709,7.5709,7.5709,7.5709,7.5709,7.5709,7.5709,7.5709,7.5709,7.5709,7.5743,7.5743,7.5743,7.6149,7.6927,7.6927,7.7266,7.7988,7.7266,7.6927,7.6961,7.7684,7.8022,5.9271,0.0,0.0,0.0,0.0,0.0,0.0,0.0,6.1533,6.1763,6.1972,6.2315,6.2988,6.3108,6.3108,6.3108,6.3108,6.3108,6.3108,6.3944,6.4675,6.5073,6.5994,6.6378,6.5728,0.0,0.0,0.0,6.7736,6.8793,7.1188,7.13,7.13,7.13,7.13,7.13,7.13,7.13,7.13,7.13,7.13,7.13,7.13,7.13,7.13,7.13,7.13,7.13,7.13,7.13,7.13,7.13,7.13,7.13,7.1357,7.1909,7.209,7.2191,7.2947,7.3184,7.3319,7.4052,7.4412,7.4683,7.5224,7.554,7.5709,7.5709,7.5709,7.5709,7.5709,7.5709,7.5709,7.5709,7.5709,7.5709,7.5709,7.5709,7.5709,7.5709,7.5709,7.5709,7.5709,7.5709,7.5709,7.5709,7.5709,7.5709,7.5709,7.5709,7.5709,7.5709,7.5709,7.5709,7.5709,7.5709,7.5709,7.5709,7.6251,7.6555,7.6555,7.7063,7.7481,7.7684,7.7684,7.7785,7.7988,7.7785,7.7684,7.7718,7.7887,7.8293,0.0,0.0,0.0,0.0,0.0,0.0,6.0172,6.1121,6.2038,0.0,6.2301,6.2644,6.3048,6.3108,6.3108,6.3108,6.3108,6.3108,6.3108,6.3761,6.4471,6.5046,6.5808,6.6008,6.5165,6.5083,6.5674,6.7087,6.719,6.8392,7.1131,7.13,7.13,7.13,7.13,7.13,7.13,7.13,7.13,7.13,7.13,7.13,7.13,7.13,7.13,7.13,7.13,7.13,7.13,7.13,7.13,7.13,7.13,7.1503,7.1808,7.2225,7.2597,7.2981,7.368,7.395,7.4086,7.483,7.5055,7.5134,7.5574,7.5709,7.5709,7.5709,7.5709,7.5709,7.5709,7.5709,7.5709,7.5709,7.5709,7.5709,7.5709,7.5709,7.5709,7.5709,7.5709,7.5709,7.5709,7.5709,7.5709,7.5709,7.5709,7.5709,7.5709,7.5709,7.5709,7.5709,7.5709,7.5845,7.6183,7.6183,7.6318,7.6635,7.7096,7.7367,7.7367,7.7785,7.8157,7.845,7.845,7.8631,7.8936,7.8631,7.8619,7.8936,7.8936,7.916,0.0,0.0,0.0,0.0,0.0,0.0,6.019,6.1208,6.2121,0.0,6.2674,6.3108,6.3108,6.3108,6.3108,6.3108,6.3108,6.3108,6.3108,6.3108,6.3535,6.473,6.5019,6.5083,6.5083,6.5233,6.5915,6.7305,6.7591,6.8732,7.1188,7.13,7.13,7.13,7.13,7.13,7.13,7.13,7.13,7.13,7.13,7.13,7.13,7.13,7.13,7.13,7.13,7.13,7.13,7.1402,7.1368,7.13,7.1402,7.1808,7.2428,7.2597,7.3071,7.3725,7.448,7.4717,7.4818,7.5473,7.5709,7.5709,7.5709,7.5709,7.5709,7.5709,7.5709,7.5709,7.5709,7.5709,7.5709,7.5709,7.5709,7.5709,7.5709,7.5709,7.5709,7.5709,7.5709,7.5709,7.5709,7.5709,7.5709,7.5709,7.5709,7.5709,7.5709,7.5777,7.5845,7.5845,7.5912,7.6251,7.6961,7.7029,7.7299,7.7954,7.809,7.8124,7.8124,7.8191,7.8551,7.9215,7.9215,7.952,8.0209,7.952,7.9553,8.0209,8.0209,8.0209,0.0,0.0,0.0,0.0,0.0,0.0,6.0775,6.1523,6.2241,6.2794,6.3003,6.3108,6.3108,6.3108,6.3108,6.3108,6.3108,6.3108,6.3108,6.3108,6.3209,6.3449,6.4443,6.5083,6.5083,6.6127,6.7343,6.8712,6.9855,7.0734,7.1267,7.13,7.13,7.13,7.13,7.13,7.13,7.13,7.13,7.13,7.13,7.13,7.13,7.13,7.13,7.13,7.13,7.13,7.1368,7.1943,7.1842,7.1368,7.1943,7.2259,7.2529,7.3736,7.4243,7.4492,7.5236,7.5473,7.5506,7.5642,7.5709,7.5709,7.5709,7.5709,7.5709,7.5709,7.5709,7.5709,7.5709,7.5709,7.5709,7.5709,7.5709,7.5709,7.5709,7.5709,7.5709,7.5709,7.5709,7.5709,7.5709,7.5709,7.5709,7.5709,7.5709,7.5709,7.5709,7.6284,7.6657,7.6657,7.721,7.7616,7.7785,7.7785,7.7853,7.7988,7.8551,7.8889,7.8889,7.9464,7.9837,7.9972,8.0006,8.0073,8.0209,8.0073,8.0073,8.0209,8.0209,8.0209,0.0,0.0,0.0,5.9518,0.0,0.0,0.0,6.2135,6.2704,6.3048,6.3108,6.3108,6.3108,6.3108,6.3108,6.3108,6.3108,6.3108,6.3108,6.3108,6.3351,6.4029,6.4675,6.5382,6.6087,6.6777,6.7749,6.9109,7.0505,7.13,7.13,7.13,7.13,7.13,7.13,7.13,7.13,7.13,7.13,7.13,7.13,7.13,7.13,7.13,7.13,7.13,7.13,7.13,7.1368,7.209,7.2191,7.1909,7.2665,7.3172,7.3612,7.4345,7.4818,7.5202,7.5574,7.5709,7.5709,7.5709,7.5709,7.5709,7.5709,7.5709,7.5709,7.5709,7.5709,7.5709,7.5709,7.5709,7.5709,7.5709,7.5709,7.5709,7.5709,7.5709,7.5709,7.5709,7.5709,7.5709,7.5709,7.5709,7.5845,7.6251,7.6284,7.642,7.6804,7.721,7.7447,7.7447,7.7785,7.8157,7.8517,7.8551,7.872,7.9058,7.9431,7.9667,7.9667,8.0006,8.0209,8.0209,8.0209,8.0209,8.0209,8.0209,8.0209,8.0209,8.0209,8.0209,0.0,0.0,0.0,0.0,0.0,6.1419,0.0,0.0,0.0,6.3108,6.3108,6.3108,6.3108,6.3108,0.0,6.2928,0.0,0.0,0.0,6.3018,0.0,6.4596,6.5165,6.5835,6.6699,6.7266,6.8157,6.9514,7.0643,7.13,7.13,7.13,7.13,7.13,7.13,7.13,7.13,7.13,7.13,7.13,7.13,7.13,7.13,7.13,7.13,7.13,7.13,7.1368,7.1571,7.2326,7.2699,7.2868,7.3488,7.4086,7.4615,7.475,7.5202,7.5709,7.5709,7.5709,7.5709,7.5709,7.5709,7.5709,7.5709,7.5709,7.5709,7.5709,7.5709,7.5709,7.5709,7.5709,7.5709,7.5709,7.5709,7.5709,7.5709,7.5709,7.5743,7.5912,7.5912,7.5912,7.5912,7.5912,7.6183,7.6995,7.7096,7.7345,7.7921,7.8124,7.8225,7.8225,7.8327,7.8665,7.9249,7.9317,7.9566,8.0175,8.0209,8.0209,8.0209,8.0209,8.0209,8.0209,8.0209,8.0209,8.0209,8.0209,8.0209,8.0209,8.0209,8.0209,0.0,0.0,0.0,0.0,6.1058,0.0,0.0,0.0,6.3108,6.3108,0.0,0.0,0.0,0.0,0.0,0.0,0.0,0.0,6.2315,6.2734,6.3165,6.3308,6.5477,6.6516,6.545,6.7534,6.9561,7.0973,7.1222,7.13,7.13,7.13,7.13,7.13,7.13,7.13,7.13,7.13,7.13,7.13,7.13,7.13,7.13,7.13,7.13,7.13,7.13,7.1672,7.2326,7.3082,7.3747,7.4345,7.4446,7.4514,7.4683,7.5337,7.5642,7.5709,7.5709,7.5709,7.5709,7.5709,7.5709,7.5709,7.5709,7.5709,7.5709,7.5709,7.5709,7.5709,7.5709,7.5709,7.5709,7.5709,7.5709,7.5709,7.5709,7.5709,7.5912,7.6623,7.6758,7.6758,7.6758,7.6758,7.7029,7.7751,7.7887,7.7921,7.7988,7.8585,7.8978,7.8978,7.9566,7.9972,8.0073,8.0073,8.0107,8.0175,8.0209,8.0209,8.0209,8.0209,8.0209,8.0209,8.0209,8.0209,8.0209,8.0209,8.0209,8.0209,8.0209,8.0209,0.0,0.0,0.0,0.0,0.0,0.0,0.0,0.0,6.3108,0.0,0.0,0.0,0.0,0.0,0.0,0.0,6.2928,0.0,0.0,0.0,6.4265,0.0,0.0,0.0,6.7381,6.9253,7.0643,7.1255,7.13,7.13,7.13,7.13,7.13,7.13,7.13,7.13,7.13,7.13,7.13,7.13,7.13,7.13,7.13,7.13,7.13,7.1334,7.174,7.2124,7.2496,7.3646,7.4322,7.4649,7.5055,7.5236,7.527,7.5574,7.5709,7.5709,7.5709,7.5709,7.5709,7.5709,7.5709,7.5709,7.5709,7.5709,7.5709,7.5709,7.5709,7.5709,7.5709,7.5709,7.5709,7.5709,7.5709,7.5811,7.6284,7.6386,7.6623,7.7379,7.7548,7.7671,7.8099,7.7807,7.7773,7.8517,7.8653,7.8788,7.924,7.9566,7.9735,7.9735,8.0006,8.0209,8.0209,8.0209,8.0209,8.0209,8.0209,8.0209,8.0209,8.0209,8.0209,8.0209,8.0209,8.0209,8.0209,8.0209,8.0209,8.0209,8.0209,8.0209,6.0176,0.0,0.0,0.0,0.0,0.0,0.0,0.0,0.0,0.0,0.0,0.0,0.0,0.0,0.0,0.0,0.0,6.3048,0.0,6.3823,0.0,0.0,0.0,0.0,0.0,7.0344,7.0871,7.1267,7.13,7.13,7.13,7.13,7.13,7.13,7.13,7.13,7.13,7.13,7.13,7.13,7.13,7.13,7.13,7.13,7.13,7.1334,7.2078,7.2496,7.28,7.4074,7.4717,7.4953,7.5506,7.5709,7.5709,7.5709,7.5709,7.5709,7.5709,7.5709,7.5709,7.5709,7.5709,7.5709,7.5709,7.5709,7.5709,7.5709,7.5709,7.5709,7.5709,7.5709,7.5743,7.598,7.6014,7.6251,7.7029,7.7198,7.7401,7.8157,7.8293,7.8551,7.9283,7.8788,7.8551,7.9283,7.9384,7.9587,8.0141,8.0209,8.0209,8.0209,8.0209,8.0209,8.0209,8.0209,8.0209,8.0209,8.0209,8.0209,8.0209,8.0209,8.0209,8.0209,8.0209,8.0209,8.0209,8.0209,8.0209,8.0209,8.0209,8.0209,0.0,0.0,0.0,6.2091,0.0,0.0,0.0,0.0,6.3108,0.0,0.0,0.0,0.0,0.0,0.0,0.0,0.0,0.0,0.0,0.0,0.0,0.0,0.0,0.0,0.0,7.0031,6.981,7.121,7.13,7.13,7.13,7.13,7.13,7.13,7.13,7.13,7.13,7.13,7.13,7.13,7.13,7.13,7.13,7.13,7.13,7.1334,7.2078,7.2812,7.3522,7.4289,7.5021,7.5676,7.5676,7.5709,7.5709,7.5709,7.5709,7.5709,7.5709,7.5709,7.5709,7.5709,7.5709,7.5709,7.5709,7.5709,7.5709,7.5709,7.5709,7.5709,7.5709,7.5709,7.5879,7.669,7.686,7.7063,7.7785,7.7954,7.8191,7.8911,7.9046,7.9283,8.004,7.9553,7.9317,8.004,8.0175,8.0175,8.0209,8.0209,8.0209,8.0209,8.0209,8.0209,8.0209,8.0209,8.0209,8.0209,8.0209,8.0209,8.0209,8.0209,8.0209,8.0209,8.0209,8.0209,8.0209,8.0209,8.0209,8.0209,8.0209,8.0209,0.0,0.0,6.2211,6.2644,0.0,0.0,0.0,0.0,0.0,0.0,0.0,0.0,0.0,0.0,0.0,0.0,0.0,0.0,0.0,0.0,0.0,0.0,0.0,0.0,0.0,0.0,7.0791,7.1267,7.13,7.13,7.13,7.13,7.13,7.13,7.13,7.13,7.13,7.13,7.13,7.13,7.13,7.13,7.13,7.13,7.1571,7.209,7.2812,7.3556,7.4289,7.5033,7.5473,7.5709,7.5709,7.5709,7.5709,7.5709,7.5709,7.5709,7.5709,7.5709,7.5709,7.5709,7.5709,7.5709,7.5709,7.5709,7.5709,7.5709,7.5709,7.5811,7.6352,7.6487,7.669,7.7447,7.765,7.7819,7.8585,7.872,7.8957,7.9667,7.9837,7.9904,8.0175,8.0006,7.9904,8.0175,8.0209,8.0209,8.0209,8.0209,8.0209,8.0209,8.0209,8.0209,8.0209,8.0209,8.0209,8.0209,8.0209,8.0209,8.0209,8.0209,8.0209,8.0209,8.0209,8.0209,8.0209,8.0209,8.0209,8.0209,8.0209,8.0209,6.2271,6.2465,0.0,6.2988,6.3108,0.0,6.3108,0.0,0.0,0.0,0.0,0.0,0.0,0.0,0.0,0.0,0.0,0.0,0.0,6.5463,0.0,0.0,0.0,0.0,0.0,7.13,7.13,7.13,7.13,7.13,0.0,7.13,7.13,7.13,7.13,7.13,7.13,7.13,7.13,7.13,7.13,7.13,7.13,7.13,7.1706,7.2428,7.3184,7.3916,7.4649,7.5405,7.5709,7.5709,7.5709,7.5709,7.5709,7.5709,7.5709,7.5709,7.5709,7.5709,7.5709,7.5709,7.5709,7.5709,7.5709,7.5709,7.5811,7.6352,7.6318,7.6352,7.7401,7.7502,7.7468,7.8213,7.8382,7.8585,7.9317,7.9486,7.9621,8.0107,8.0209,8.0209,8.0209,8.0209,8.0209,8.0209,8.0209,8.0209,8.0209,8.0209,8.0209,8.0209,8.0209,8.0209,8.0209,8.0209,8.0209,8.0209,8.0209,8.0209,8.0209,8.0209,8.031,8.0593,8.031,8.031,8.0593,8.031,8.0209,8.0209,8.0209,8.0209]},{"header":{"parameterUnit":"m.s-1","parameterCategory":1,"la1":30.6,"la2":29.2853,"lo1":-89.7004,"lo2":-87.6739,"dy":0.0162,"dx":0.0183,"nx":112,"ny":82,"refTime":"2023-04-12T06:00:00:Z","depth":0,"parameterNumber":3,"parameterNumberName":"V-component_of_WINDS"},"data":[0.0,0.0,0.0,0.0,0.0,0.0,0.0,0.0,0.0,0.0,0.0,0.0,0.0,0.0,0.0,0.0,0.0,0.0,0.0,0.0,0.0,0.0,0.0,0.0,0.0,0.0,0.0,0.0,0.0,0.0,0.0,0.0,0.0,0.0,0.0,0.0,0.0,0.0,0.0,0.0,0.0,0.0,0.0,0.0,0.0,0.0,0.0,0.0,0.0,0.0,0.0,0.0,0.0,0.0,0.0,0.0,0.0,0.0,0.0,0.0,0.0,0.0,0.0,0.0,0.0,0.0,0.0,0.0,0.0,0.0,0.0,0.0,0.0,0.0,0.0,0.0,0.0,0.0,0.0,0.0,0.0,0.0,0.0,0.0,0.0,0.0,0.0,0.0,0.0,0.0,0.0,0.7987,0.8001,0.8001,0.8001,0.8001,0.8001,0.8001,0.0,0.0,0.0,0.0,0.0,0.0,0.0,0.0,0.0,0.0,0.0,0.0,0.0,0.0,0.0,0.0,0.0,0.0,0.0,0.0,0.0,0.0,0.0,0.0,0.0,0.0,0.0,0.0,0.0,0.0,0.0,0.0,0.0,0.0,0.0,0.0,0.0,0.0,0.0,0.0,0.0,0.0,0.0,0.0,0.0,0.0,0.0,0.0,0.0,0.0,0.0,0.0,0.0,0.0,0.0,0.0,0.0,0.0,0.0,0.0,0.0,0.0,0.0,0.0,0.0,0.0,0.0,0.0,0.0,0.0,0.0,0.0,0.0,0.0,0.0,0.0,0.0,0.0,0.0,0.0,0.0,0.0,0.0,0.0,0.0,0.0,0.0,0.0,0.0,0.0,0.0,0.0,0.0,0.0,0.0,0.0,0.0,0.0,0.0,0.0,0.0,0.0,0.0,0.0,0.7974,0.8001,0.8001,0.8001,0.8001,0.8001,0.8001,0.8001,0.0,0.0,0.0,0.0,0.0,0.0,0.0,0.0,0.0,0.0,0.0,0.0,0.0,0.0,0.0,0.0,0.0,0.0,0.0,0.0,0.0,0.0,0.0,0.0,0.0,0.0,0.0,0.0,0.0,0.0,0.0,0.0,0.0,0.0,0.0,0.0,0.0,0.0,0.0,0.0,0.0,0.0,0.0,0.0,0.0,0.0,0.0,0.0,0.0,0.0,0.0,0.0,0.0,0.0,0.0,0.0,0.0,0.0,0.0,0.0,0.0,0.0,0.0,0.0,0.0,0.0,0.0,0.0,0.0,0.0,0.0,0.0,0.0,0.0,0.0,0.0,0.0,0.0,0.0,0.0,0.0,0.0,0.0,0.0,0.0,0.0,0.0,0.0,0.0,0.0,0.0,0.0,0.0,0.0,0.0,0.0,0.0,0.0,0.0,0.0,0.0,0.0,0.0,0.796,0.8001,0.8001,0.8001,0.8001,0.8001,0.8001,0.8001,0.8001,0.8001,0.0,0.0,0.0,0.0,0.0,0.0,0.0,0.0,0.0,0.0,0.0,0.0,0.0,0.0,0.0,0.0,0.0,0.0,0.0,0.0,0.0,0.0,0.0,0.0,0.0,0.0,0.0,0.0,0.0,0.0,0.0,0.0,0.0,0.0,0.0,0.0,0.0,0.0,0.0,0.0,0.0,0.0,0.0,0.0,0.0,0.0,0.0,0.0,0.0,0.0,0.0,0.0,0.0,0.0,0.0,0.0,0.0,0.0,0.0,0.0,0.0,0.0,0.0,0.0,0.0,0.0,0.0,0.0,0.0,0.0,0.0,0.0,0.0,0.0,0.0,0.0,0.0,0.0,0.0,0.0,0.0,0.0,0.0,0.0,0.0,0.0,0.0,0.0,0.0,0.0,0.0,0.0,0.0,0.0,0.0,0.0,0.0,0.0,0.0,0.0,0.0,0.0,0.8001,0.8001,0.8001,0.8047,0.8067,0.8067,0.8101,0.8121,0.8121,0.8088,0.0,0.0,0.0,0.0,0.0,0.0,0.0,0.0,0.0,0.0,0.0,0.0,0.0,0.0,0.0,0.0,0.0,0.0,0.0,0.0,0.0,0.0,0.0,0.0,0.0,0.0,0.0,0.0,0.0,0.0,0.0,0.0,0.0,0.0,0.0,0.0,0.0,0.0,0.0,0.0,0.0,0.0,0.0,0.0,0.0,0.0,0.0,0.0,0.0,0.0,0.0,0.0,0.0,0.0,0.0,0.0,0.0,0.0,0.0,0.0,0.0,0.0,0.0,0.0,0.0,0.0,0.0,0.0,0.0,0.0,0.0,0.0,0.0,0.0,0.0,0.0,0.0,0.0,0.0,0.0,0.0,0.0,0.0,0.0,0.0,0.0,0.0,0.0,0.0,0.0,0.0,0.0,0.0,0.0,0.0,0.0,0.0,0.0,0.0,0.0,0.0,0.0,0.8001,0.8001,0.8001,0.8167,0.8281,0.8281,0.839,0.8465,0.8465,0.8355,0.0,0.0,0.0,0.0,0.0,0.0,0.0,0.0,0.0,0.0,0.0,0.0,0.0,0.0,0.0,0.0,0.0,0.0,0.0,0.0,0.0,0.0,0.0,0.0,0.0,0.0,0.0,0.0,0.0,0.0,0.0,0.0,0.0,0.0,0.0,0.0,0.0,0.0,0.0,0.0,0.0,0.0,0.0,0.0,0.0,0.0,0.0,0.0,0.0,0.0,0.0,0.0,0.0,0.0,0.0,0.0,0.0,0.0,0.0,0.0,0.0,0.0,0.0,0.0,0.0,0.0,0.0,0.0,0.0,0.0,0.0,0.0,0.0,0.0,0.0,0.0,0.0,0.0,0.0,0.0,0.0,0.0,0.0,0.0,0.0,0.0,0.0,0.0,0.0,0.0,0.0,0.0,0.0,0.0,0.0,0.0,0.0,0.0,0.0,0.0,0.0,0.0,0.818,0.8214,0.0,0.8383,0.843,0.843,0.8465,0.8492,0.8492,0.0,0.0,0.0,0.0,0.0,0.0,0.0,0.0,0.0,0.0,0.0,0.0,0.0,0.0,0.0,0.0,0.0,0.0,0.0,0.0,0.0,0.0,0.0,0.0,0.0,0.0,0.0,0.0,0.0,0.0,0.0,0.0,0.0,0.0,0.0,0.0,0.0,0.0,0.0,0.0,0.0,0.0,0.0,0.0,0.0,0.0,0.0,0.0,0.0,0.0,0.0,0.0,0.0,0.0,0.0,0.0,0.0,0.0,0.0,0.0,0.0,0.0,0.0,0.0,0.0,0.0,0.0,0.0,0.0,0.0,0.0,0.0,0.0,0.0,0.0,0.0,0.0,0.0,0.0,0.0,0.0,0.0,0.0,0.0,0.0,0.0,0.0,0.0,0.0,0.0,0.0,0.0,0.0,0.0,0.0,0.0,0.0,0.0,0.0,0.0,0.0,0.0,0.8342,0.8362,0.8403,0.0,0.8954,0.926,0.926,0.9733,1.0015,1.0015,0.0,0.0,0.0,0.0,0.0,0.0,0.0,0.0,0.0,0.0,0.0,0.0,0.0,0.0,0.0,0.0,0.0,0.0,0.0,0.0,0.0,0.0,0.0,0.0,0.0,0.0,0.0,0.0,0.0,0.0,0.0,0.0,0.0,0.0,0.0,0.0,0.0,0.0,0.0,0.0,0.0,0.0,0.0,0.0,0.0,0.0,0.0,0.0,0.0,0.0,0.0,0.0,0.0,0.0,0.0,0.0,0.0,0.0,0.0,0.0,0.0,0.0,0.0,0.0,0.0,0.0,0.0,0.0,0.0,0.0,0.0,0.0,0.0,0.0,0.0,0.0,0.0,0.0,0.0,0.0,0.0,0.0,0.0,0.0,0.0,0.0,0.0,0.0,0.0,0.0,0.0,0.0,0.0,0.0,0.0,0.0,0.0,0.0,0.0,0.0,0.0,0.0,0.8478,0.8499,0.8512,0.8525,0.9962,1.091,1.0937,1.2393,1.3315,0.0,0.0,0.0,0.0,0.0,0.0,0.0,0.0,0.0,0.0,0.0,0.0,0.0,0.0,0.0,0.0,0.0,0.0,0.0,0.0,0.0,0.0,0.0,0.0,0.0,0.0,0.0,0.0,0.0,0.0,0.0,0.0,0.0,0.0,0.0,0.0,0.0,0.0,0.0,0.0,0.0,0.0,0.0,0.0,0.0,0.0,0.0,0.0,0.0,0.0,0.0,0.0,0.0,0.0,0.0,0.0,0.0,0.0,0.0,0.0,0.0,0.0,0.0,0.0,0.0,0.0,0.0,0.0,0.0,0.0,0.0,0.0,0.0,0.0,0.0,0.0,0.0,0.0,0.0,0.0,0.0,0.0,0.0,0.0,0.0,0.0,0.0,0.0,0.0,0.0,0.0,0.0,0.0,0.0,0.0,0.0,0.0,0.0,0.0,0.0,0.0,0.0,0.0,0.8621,0.8642,0.9078,1.0205,1.0932,1.1734,1.2795,1.3473,1.3869,1.3869,0.0,0.0,0.0,0.0,0.0,0.0,0.0,0.0,0.0,0.0,0.0,0.0,0.0,0.0,0.0,0.0,0.0,0.0,0.0,0.0,0.0,0.0,0.0,0.0,0.0,0.0,0.0,0.0,0.0,0.0,0.0,0.0,0.0,0.0,0.0,0.0,0.0,0.0,0.0,0.0,0.0,0.0,0.0,0.0,0.0,0.0,0.0,0.0,0.0,0.0,0.0,0.0,0.0,0.0,0.0,0.0,0.0,0.0,0.0,0.0,0.0,0.0,0.0,0.0,0.0,0.0,0.0,0.0,0.0,0.0,0.0,0.0,0.0,0.0,0.0,0.0,0.0,0.0,0.0,0.0,0.0,0.0,0.0,0.0,0.0,0.0,0.0,0.0,0.0,0.0,0.0,0.0,0.0,0.0,0.0,0.0,0.0,0.0,0.0,0.0,0.0,0.0,0.8879,0.894,0.9606,1.1209,1.2026,1.3086,1.4608,1.5423,1.5862,1.5862,0.0,0.0,0.0,0.0,0.0,0.0,0.0,0.0,0.0,0.0,0.0,0.0,0.0,0.0,0.0,0.0,0.0,0.0,0.0,0.0,0.0,0.0,0.0,0.0,0.0,0.0,0.0,0.0,0.0,0.0,0.0,0.0,0.0,0.0,0.0,0.0,0.0,0.0,0.0,0.0,0.0,0.0,0.0,0.0,0.0,0.0,0.0,0.0,0.0,0.0,0.0,0.0,0.0,0.0,0.0,0.0,0.0,0.0,0.0,0.0,0.0,0.0,0.0,0.0,0.0,0.0,0.0,0.0,0.0,0.0,0.0,0.0,0.0,0.0,0.0,0.0,0.0,0.0,0.0,0.0,0.0,0.0,0.0,0.0,0.0,0.0,0.0,0.0,0.0,0.0,0.0,0.0,0.0,0.0,0.0,0.0,0.0,0.0,0.0,0.0,0.0,0.0,0.9398,0.9551,1.0293,1.204,1.3383,1.4813,1.6404,1.7794,1.8584,1.8584,0.0,0.0,0.0,0.0,0.0,0.0,0.0,0.0,0.0,0.0,0.0,0.0,0.0,0.0,0.0,0.0,0.0,0.0,0.0,0.0,0.0,0.0,0.0,0.0,0.0,0.0,0.0,0.0,0.0,0.0,0.0,0.0,0.0,0.0,0.0,0.0,0.0,0.0,0.0,0.0,0.0,0.0,0.0,0.0,0.0,0.0,0.0,0.0,0.0,0.0,0.0,0.0,0.0,0.0,0.0,0.0,0.0,0.0,0.0,0.0,1.0784,0.0,0.0,0.0,0.0,0.0,0.0,0.0,0.0,0.0,0.0,0.0,0.0,0.0,0.0,0.0,0.0,0.0,0.0,0.0,0.0,0.0,0.0,0.0,0.0,0.0,0.0,0.0,0.0,0.0,0.0,0.0,0.0,0.0,0.0,0.0,0.0,0.0,0.0,0.0,0.0,0.0,1.1079,1.1269,1.2332,1.5052,1.5796,1.6706,1.8218,1.8881,1.9214,1.9214,0.0,0.0,0.0,0.0,0.0,0.0,0.0,0.0,0.0,0.0,0.0,0.0,0.0,0.0,0.0,0.0,0.0,0.0,0.0,0.0,0.0,0.0,0.0,0.0,0.0,0.0,0.0,0.0,0.0,0.0,0.0,0.0,0.0,0.0,0.0,0.0,0.0,0.0,0.0,0.0,0.0,0.0,0.0,0.0,0.0,0.0,0.0,0.0,0.0,0.0,0.0,0.0,0.0,0.0,0.0,0.0,0.0,0.0,0.0,0.0,0.0,1.1751,0.0,0.0,0.0,0.0,0.0,0.0,0.0,0.0,0.0,0.0,0.0,0.0,0.0,0.0,0.0,0.0,0.0,0.0,0.0,0.0,0.0,0.0,0.0,0.0,0.0,0.0,0.0,0.0,0.0,0.0,0.0,0.0,0.0,0.0,0.0,0.0,0.0,0.0,0.0,0.0,1.1896,1.2628,1.4037,1.639,1.6752,1.7469,1.9003,1.9293,1.9401,1.9401,1.924,0.0,0.0,0.0,0.0,0.0,0.0,0.0,0.0,0.0,0.0,0.0,0.0,0.0,0.0,0.0,0.0,0.0,0.0,0.0,0.0,0.0,0.0,0.0,0.0,0.0,0.0,0.0,0.0,0.0,0.0,0.0,0.0,0.0,0.0,0.0,0.0,0.0,0.0,0.0,0.0,0.0,0.0,0.0,0.0,0.0,0.0,0.0,0.0,0.0,0.0,0.0,0.0,0.0,1.3102,1.3196,1.428,1.3169,1.33,1.4328,1.3223,1.3894,1.5725,0.0,0.0,0.0,0.0,0.0,0.0,0.0,0.0,0.0,0.0,0.0,0.0,0.0,0.0,0.0,0.0,0.0,0.0,0.0,0.0,0.0,0.0,0.0,0.0,0.0,1.3791,1.3791,0.0,0.0,0.0,0.0,0.0,0.0,0.0,0.0,0.0,0.0,0.0,0.0,1.3061,1.4198,1.5712,1.7383,1.7561,1.8101,1.9431,1.9534,1.9534,1.9534,1.9534,1.9534,0.0,0.0,0.0,0.0,0.0,0.0,0.0,0.0,0.0,0.0,0.0,0.0,0.0,0.0,0.0,0.0,0.0,0.0,0.0,0.0,0.0,0.0,0.0,0.0,0.0,0.0,0.0,0.0,0.0,0.0,0.0,0.0,1.4783,1.4812,0.0,0.0,0.0,0.0,0.0,0.0,0.0,0.0,0.0,0.0,0.0,0.0,0.0,1.4291,1.5256,1.4184,1.428,1.5545,1.5367,1.5533,1.5975,1.5804,1.5935,1.6319,1.6144,0.0,1.5796,1.5617,0.0,0.0,0.0,0.0,0.0,0.0,0.0,0.0,0.0,0.0,0.0,0.0,0.0,0.0,0.0,0.0,0.0,0.0,0.0,0.0,0.0,0.0,1.7107,1.7627,1.7757,1.7757,0.0,1.5458,1.346,1.3613,1.3678,0.0,0.0,0.0,0.0,0.0,0.0,0.0,1.6507,1.6878,1.773,1.9583,1.9775,1.9851,2.0075,2.009,2.009,2.009,2.009,2.009,2.009,1.988,0.0,0.0,0.0,0.0,0.0,0.0,0.0,0.0,0.0,0.0,0.0,0.0,0.0,0.0,0.0,0.0,0.0,0.0,0.0,0.0,0.0,0.0,0.0,0.0,0.0,0.0,0.0,0.0,0.0,1.4825,1.4997,1.4997,1.5133,1.5215,0.0,0.0,0.0,0.0,0.0,0.0,0.0,0.0,0.0,1.5808,1.5439,1.5516,1.6086,1.5671,1.5749,1.6314,1.6314,1.6381,1.6513,1.6513,1.658,1.67,1.67,1.6541,1.6314,1.6314,1.6314,1.6314,0.0,0.0,0.0,0.0,1.6513,1.6539,1.666,1.67,0.0,0.0,0.0,0.0,0.0,0.0,0.0,0.0,0.0,0.0,0.0,0.0,0.0,1.8437,1.8504,1.8531,1.869,1.7572,1.6299,0.0,1.5402,1.4988,1.3519,0.0,0.0,0.0,0.0,0.0,1.7686,1.8449,1.9298,2.0108,2.0197,2.0197,2.0197,2.0197,2.0197,2.0197,2.0197,2.0197,2.0197,2.0092,2.0025,0.0,0.0,0.0,0.0,0.0,0.0,0.0,0.0,0.0,0.0,0.0,0.0,0.0,0.0,0.0,0.0,0.0,0.0,0.0,0.0,0.0,0.0,0.0,0.0,0.0,0.0,0.0,0.0,1.516,1.5188,1.5188,1.5378,1.5499,0.0,0.0,0.0,0.0,0.0,0.0,1.5927,1.5981,1.6021,1.6021,1.6273,1.6392,1.6392,1.6593,1.67,1.67,1.67,1.674,1.6833,1.6901,1.6981,1.7035,1.7115,1.7154,1.7141,1.6834,1.67,1.67,1.67,1.67,1.6714,1.6806,1.686,1.6941,1.7008,1.7088,1.7154,1.7154,0.0,1.7154,1.7154,0.0,0.0,0.0,0.0,1.8518,1.8584,1.8597,1.8624,1.8718,1.8785,1.8891,1.9091,1.9183,1.8828,0.0,1.7289,1.6913,1.5524,0.0,0.0,0.0,0.0,1.9815,1.8751,1.9619,2.0344,2.0424,2.0424,2.0424,2.0424,2.0424,2.0424,2.0424,2.0424,2.0424,2.0424,2.0357,2.0332,2.0332,0.0,0.0,0.0,0.0,0.0,0.0,0.0,0.0,0.0,0.0,0.0,0.0,0.0,0.0,0.0,0.0,0.0,0.0,0.0,0.0,0.0,0.0,0.0,0.0,0.0,0.0,0.0,0.0,0.0,1.5768,1.577,0.0,0.0,0.0,0.0,1.5808,1.6086,1.627,1.627,1.6525,1.6648,1.6648,1.6661,1.6687,1.6687,1.6688,1.67,1.67,1.67,1.6873,1.718,1.7434,1.7689,1.7956,1.8263,1.8411,1.833,1.7181,1.67,1.67,1.67,1.67,1.674,1.7059,1.734,1.7595,1.7849,1.8129,1.8411,1.8411,1.8411,1.8411,1.8411,1.8437,0.0,0.0,1.8504,1.8557,1.881,1.8876,1.8957,1.9281,1.9547,1.9733,1.9746,1.9958,2.0035,0.0,1.9628,1.9231,1.7948,0.0,1.952,1.7989,1.914,2.0288,2.0537,2.0639,2.0777,2.1042,2.1053,2.1053,2.1053,2.1053,2.1053,2.1053,2.1053,2.1053,2.1053,2.0817,2.067,2.067,2.0359,0.0,0.0,0.0,0.0,0.0,0.0,0.0,0.0,0.0,0.0,0.0,0.0,0.0,0.0,0.0,0.0,0.0,0.0,0.0,0.0,0.0,0.0,0.0,0.0,0.0,0.0,0.0,0.0,1.5808,1.5808,0.0,1.6099,1.6124,1.6192,1.6367,1.6486,1.6566,1.6566,1.6647,1.67,1.67,1.6913,1.71,1.7288,1.7449,1.7636,1.7849,1.7849,1.7916,1.8036,1.813,1.8223,1.833,1.845,1.8504,1.8478,1.805,1.7849,1.7849,1.7849,1.7849,1.7862,1.7983,1.8103,1.8197,1.829,1.8397,1.8504,1.8504,1.8504,1.8531,1.8718,1.8757,1.8797,1.9012,1.92,1.9359,1.9451,1.9611,1.977,1.9892,1.9985,2.0065,2.0065,2.013,2.0239,2.0363,2.0199,1.9911,1.9459,2.0007,2.0339,1.9786,2.0327,2.0826,2.0949,2.0949,2.0989,2.108,2.1093,2.1093,2.1093,2.1093,2.1093,2.1093,2.1093,2.1093,2.1093,2.1002,2.0949,2.0949,2.084,2.0693,0.0,0.0,0.0,0.0,0.0,0.0,0.0,0.0,0.0,0.0,0.0,0.0,0.0,0.0,0.0,0.0,0.0,0.0,0.0,0.0,0.0,0.0,0.0,0.0,0.0,0.0,1.5967,1.5967,1.6047,1.6194,1.6405,1.6432,1.6512,1.6687,1.6794,1.6913,1.6994,1.7088,1.7195,1.7301,1.7528,1.7715,1.7903,1.8076,1.8276,1.8504,1.8504,1.8504,1.849,1.8597,1.8637,1.8637,1.8758,1.8798,1.8798,1.8798,1.8798,1.8785,1.8584,1.8504,1.8504,1.8504,1.8571,1.8651,1.8772,1.8798,1.8812,1.8919,1.8945,1.8985,1.9264,1.933,1.9383,1.9599,1.98,1.9932,1.9932,2.0079,2.0197,2.0197,2.0292,2.0359,2.0359,2.0439,2.0573,2.0788,2.0588,2.0399,2.0492,2.0695,2.0831,2.0831,2.0989,2.1093,2.1093,2.1093,2.1093,2.1093,2.1093,2.1093,2.1093,2.1093,2.1093,2.1093,2.1093,2.1093,2.1093,2.1093,2.1093,2.1093,2.1093,2.1015,2.0831,0.0,0.0,0.0,0.0,0.0,0.0,0.0,0.0,0.0,0.0,0.0,0.0,0.0,0.0,0.0,0.0,0.0,0.0,0.0,0.0,0.0,0.0,0.0,1.5875,1.6112,1.631,1.631,1.654,1.6701,1.6701,1.6714,1.6728,1.674,1.7046,1.7354,1.7608,1.7876,1.8169,1.8477,1.8504,1.849,1.8504,1.8504,1.8518,1.8531,1.8531,1.8517,1.8558,1.881,1.893,1.8956,1.928,1.9428,1.9428,1.9428,1.9428,1.9361,1.8772,1.8544,1.8531,1.8558,1.8718,1.8984,1.9306,1.9428,1.9468,1.9734,1.9813,1.9867,2.0117,2.0197,2.0197,2.0197,2.021,2.0224,2.0224,2.0224,2.0224,2.0224,2.0481,2.071,2.071,2.0924,2.1093,2.1093,2.0898,2.0791,2.1069,2.1093,2.1093,2.1093,2.1093,0.0,2.1093,2.1093,2.1093,2.1107,2.1122,2.1122,2.1136,2.1136,2.1136,2.1136,2.1136,2.112,2.1122,2.1122,2.1107,2.1093,2.1093,2.1093,2.1093,0.0,0.0,0.0,0.0,0.0,0.0,0.0,0.0,0.0,0.0,0.0,0.0,0.0,0.0,0.0,0.0,0.0,0.0,0.0,0.0,0.0,0.0,1.6553,1.6473,1.654,1.658,1.658,1.666,1.6806,1.7046,1.7247,1.7435,1.7636,1.7956,1.817,1.825,1.8317,1.841,1.8504,1.8504,1.8597,1.8784,1.8797,1.8918,1.916,1.916,1.9253,1.9439,1.9519,1.9665,1.985,1.9945,1.9985,1.9985,1.9985,1.9985,1.9945,1.9586,1.9439,1.9466,1.9665,1.977,1.985,1.9945,1.9985,1.9998,2.0079,2.0077,2.0104,2.0184,2.0197,2.0197,2.0197,2.0372,2.0548,2.0548,2.0708,2.0853,2.0853,2.092,2.0989,2.0989,2.1056,2.1093,2.1093,2.1042,2.1015,2.1096,2.1093,2.1093,2.1093,2.1093,0.0,2.1093,2.1093,2.1189,2.1435,2.1462,2.1539,2.174,2.175,2.175,2.175,2.175,2.1673,2.1475,2.1462,2.1352,2.1093,2.1093,2.1093,0.0,0.0,0.0,0.0,0.0,0.0,0.0,0.0,0.0,0.0,0.0,0.0,0.0,0.0,0.0,0.0,0.0,0.0,0.0,0.0,0.0,0.0,1.6913,1.6993,1.7209,1.7048,1.6953,1.7061,1.7182,1.7382,1.7702,1.7889,1.8036,1.821,1.8397,1.8544,1.8664,1.8677,1.8731,1.8865,1.8879,1.9012,1.9278,1.9278,1.9424,1.9748,1.9748,1.9813,1.9972,1.9972,2.0037,0.0,2.0197,2.0197,2.0197,2.0197,2.0197,0.0,0.0,0.0,0.0,0.0,2.0197,2.0197,2.0197,2.0197,2.0224,2.0359,2.0399,2.0426,2.0546,2.0586,2.0586,2.0586,2.0722,2.0871,2.0871,2.0989,2.1093,2.1093,2.1093,2.1093,2.1093,2.1093,2.1149,2.1285,2.1312,0.0,2.1456,2.1376,2.1312,2.1312,2.1419,2.1483,2.1483,2.1483,2.1553,2.1743,2.177,2.1836,2.1994,2.2007,0.0,0.0,0.0,2.1927,2.177,2.177,0.0,0.0,0.0,2.1483,2.1483,0.0,0.0,0.0,2.1149,2.1015,0.0,0.0,0.0,0.0,0.0,0.0,0.0,0.0,0.0,0.0,0.0,0.0,0.0,0.0,0.0,0.0,1.7313,1.7515,1.7996,1.7649,1.7434,1.7662,1.7916,1.8169,1.8464,1.8531,1.8558,1.8558,1.8584,1.8718,1.8997,0.0,0.0,0.0,0.0,1.9601,1.984,1.9853,1.9958,2.0197,2.0197,2.0224,2.025,2.025,2.0264,2.0304,2.0304,2.0304,2.0304,2.0304,2.0304,2.0304,2.0264,2.0277,2.0304,2.0304,2.0304,2.0304,2.0304,0.0,0.0,2.0657,2.0737,2.0791,2.1029,2.1093,2.1093,2.1093,2.1093,2.1093,2.1093,2.1093,2.1122,2.1149,2.1162,2.1162,2.1187,2.1203,2.1283,2.1582,2.1652,2.1716,2.1954,2.181,2.1652,2.1652,2.185,2.2007,2.2007,2.2007,2.2007,2.2031,0.0,0.0,2.2101,2.2101,2.2101,2.2101,2.2074,2.2047,2.2047,2.2021,2.2007,2.2007,2.2007,2.2007,2.2007,2.2007,2.2007,2.1994,2.1456,2.1203,0.0,0.0,0.0,0.0,0.0,0.0,0.0,0.0,0.0,0.0,0.0,0.0,0.0,0.0,0.0,1.7796,1.8076,1.829,1.8384,1.8303,1.8264,1.8317,1.837,1.8424,1.8477,1.8704,1.8824,1.8824,1.9079,1.9333,1.9613,1.9626,1.9745,2.0039,2.0052,2.0079,2.0117,2.0117,2.0144,2.0197,0.0,0.0,2.0603,2.0603,2.0722,2.092,2.092,2.092,2.092,2.092,2.092,2.0906,2.0697,2.0735,2.092,2.092,2.092,2.092,2.092,2.092,2.0933,2.1002,2.1029,2.1042,2.108,2.1093,0.0,2.1093,2.1093,2.1093,2.1093,2.1093,2.1162,2.1435,2.1502,2.1569,2.178,2.1833,2.1847,2.1914,2.1914,2.194,2.1994,2.1954,2.1914,2.1914,2.1967,2.2007,2.2007,2.2007,2.2071,2.2295,2.2321,2.2432,2.2706,2.2733,2.2733,2.2733,2.2472,2.2321,2.2321,2.2111,2.2007,2.2007,2.2007,2.2007,2.2007,2.2007,2.2007,2.1994,2.1887,2.1833,0.0,0.0,0.0,0.0,0.0,0.0,0.0,0.0,0.0,0.0,0.0,1.9025,0.0,0.0,1.809,1.8236,1.8397,1.8558,1.8691,1.9334,1.9528,1.8788,1.869,1.8771,1.8932,1.9199,1.9344,1.9344,1.9639,1.9867,1.9998,1.9998,2.0065,2.0197,2.0197,2.0277,2.0454,2.0454,2.0521,2.0653,2.0653,2.0733,2.0895,2.0895,2.0975,2.1093,2.1093,2.1093,2.1093,2.1093,2.1093,2.1096,2.0949,2.0989,2.1093,2.1093,2.1093,2.1093,2.1093,2.1093,2.1093,2.1093,2.1093,2.1093,2.1093,2.1093,2.112,2.1312,2.1352,2.1379,2.1526,2.155,2.159,2.177,2.1796,2.1836,2.1967,2.2007,2.2047,2.2178,2.2205,2.2245,2.2408,2.2452,2.2395,2.2231,2.2342,2.2452,2.2452,2.2452,2.2502,2.2649,2.2762,2.2909,2.3086,2.3251,2.3277,2.31,2.2936,2.2789,2.2662,2.2515,2.2452,2.2452,2.2452,2.2452,2.2452,2.2452,2.2452,2.2452,2.2452,2.2288,0.0,0.0,0.0,0.0,0.0,0.0,0.0,0.0,2.3992,2.061,2.1161,2.1573,1.9358,1.8988,1.9015,1.9015,1.907,1.9207,1.9508,2.0824,2.1359,2.0231,1.9748,1.9644,2.0003,1.9938,2.0014,2.0341,2.056,2.071,2.0763,2.0763,2.079,2.086,2.086,2.083,2.0777,2.109,2.1212,2.1093,2.1093,2.1093,2.1093,2.1093,2.1093,2.1093,2.1093,2.1283,2.1553,2.1235,2.1093,2.1122,2.1176,2.1189,2.1189,2.112,2.1093,2.1093,2.1093,2.1149,2.1189,2.1189,2.1229,2.1267,2.1267,2.1267,2.1323,2.1596,2.1679,2.1729,2.194,2.2007,2.2021,2.2074,2.2087,2.2101,2.2154,2.2168,2.2245,2.2522,2.2558,2.2669,2.3027,2.3081,2.2957,2.2628,2.2806,2.3014,2.3067,2.3081,2.3081,2.3081,2.326,2.3389,2.3389,2.3634,2.3679,2.3403,2.3389,2.33,2.3081,2.3081,2.3081,2.3081,2.3081,2.3081,2.3081,2.3081,2.3081,2.3081,2.3081,2.276,2.4324,2.4344,2.4442,2.4906,2.5024,2.4854,0.0,0.0,2.4038,2.2751,2.266,2.2722,2.2404,2.1505,2.0797,2.0797,2.1062,2.1387,2.1785,2.3138,2.4195,2.4377,2.2778,2.1832,2.229,2.1005,2.0777,2.226,2.2394,2.2527,2.2763,2.2778,2.2911,2.3207,2.3222,2.2521,2.1071,2.2518,2.2533,2.1093,2.1093,2.1093,2.1093,2.1093,2.1093,2.1093,2.1093,2.1947,2.3201,2.1711,2.1093,2.1136,2.1435,2.1542,2.1502,2.1203,2.1093,2.1093,2.1093,2.1283,2.1542,2.1542,2.1716,2.19,2.19,2.19,2.1914,2.194,2.1954,2.1967,2.1994,2.2007,2.2061,2.2295,2.2361,2.2445,2.2746,2.28,2.2876,2.3149,2.3203,2.3309,2.3638,2.371,2.3585,2.3256,2.3243,2.3349,2.3652,2.371,2.371,2.371,2.3736,2.3745,2.3745,2.379,2.3772,2.3745,2.3745,2.3719,2.371,2.371,2.371,2.371,2.371,2.371,2.371,2.371,2.371,2.371,2.371,2.3375,2.4738,2.498,0.0,0.0,2.5864,2.5861,2.5869,2.5863,2.5542,2.4363,2.4245,2.4122,2.3332,2.2905,2.2754,0.0,2.319,2.3427,2.3834,2.5184,2.5956,2.5455,2.5369,2.505,2.4182,2.3647,2.3621,2.4337,2.4528,2.4658,2.477,2.4786,2.4423,2.3636,2.3605,2.3263,2.256,2.3248,2.3714,2.3946,2.3946,2.3466,2.2591,2.3513,2.4084,2.4297,2.4297,2.4843,2.5706,2.4998,2.4713,2.4729,2.4851,2.4928,2.4657,2.2436,2.1617,2.1617,2.1617,2.1713,2.1836,2.1836,2.19,2.2007,2.2007,2.2007,2.2034,2.2191,2.2231,2.2285,2.2475,2.2515,2.2596,2.2855,2.2922,2.3016,2.3344,2.3429,2.3469,2.3585,2.3581,2.3638,2.379,2.3803,2.3799,2.3817,2.3688,2.3652,2.3772,2.3803,2.3852,2.4026,2.4022,2.4088,2.4244,2.4275,2.4209,2.4035,2.4022,2.3959,2.3817,2.3803,2.3803,2.3803,2.3803,2.3803,2.3803,2.3803,2.3803,2.3803,2.3803,2.3669,2.55,0.0,0.0,2.6484,2.6575,2.668,2.7109,2.7187,2.6937,2.6091,2.6056,2.593,2.508,2.4748,2.4749,2.5207,2.5258,2.5423,2.5841,2.7183,2.7849,2.7146,2.8011,2.8151,2.6825,2.6092,2.5887,2.6351,2.6544,2.6666,2.6666,2.6666,2.6121,2.4947,2.4916,2.4701,2.4271,2.4702,2.5348,2.6162,2.6179,2.5631,2.4657,2.5836,2.6754,2.7441,2.699,2.7235,2.7927,2.7486,2.7296,2.7313,2.7364,2.7414,2.7112,2.4621,2.3285,2.2654,2.2175,2.2061,2.2111,2.2111,2.2181,2.2248,2.2248,2.2248,2.2288,2.2485,2.2588,2.2695,2.2957,2.3081,2.3201,2.3394,2.3429,2.3514,2.3745,2.3803,2.3812,2.3892,2.3906,2.3933,2.4013,2.4026,2.4075,2.4271,2.4142,2.4026,2.4026,2.4026,2.4088,2.4284,2.4311,2.4391,2.4586,2.4599,2.4524,2.4324,2.4311,2.4222,2.404,2.4026,2.4026,2.4026,2.4026,2.4026,2.4026,2.4026,2.4026,2.4026,2.4026,2.4026,0.0,0.0,2.696,2.6979,2.6979,2.7097,2.7565,2.7682,2.778,2.8124,2.8208,2.8331,2.8672,2.7557,2.6739,2.715,2.7218,2.7376,2.7846,2.9178,3.028,3.0684,3.0772,3.0772,0.0,2.7853,2.6634,2.8197,2.8319,2.8319,2.8319,2.8319,2.8289,2.8244,2.8244,2.7512,2.5939,2.7482,2.7686,2.6589,2.6575,2.6789,2.7184,2.7247,2.8113,2.9519,2.7957,2.8162,2.9506,2.7943,2.7296,2.7329,2.7583,2.7683,2.7716,2.7916,2.653,2.4287,2.2588,2.2164,2.2388,2.2388,2.2622,2.2867,2.2867,2.2867,2.2867,2.288,2.306,2.3283,2.3296,2.3527,2.3759,2.3772,2.3772,2.379,2.3803,2.3803,2.3866,2.4142,2.4195,2.4257,2.4519,2.4572,2.4572,2.4586,2.4572,2.4572,2.4572,2.4572,2.4572,2.4586,2.4586,2.4586,2.4599,2.4599,2.4599,2.4586,2.4586,2.4586,2.4572,2.4572,2.4572,2.4572,2.4572,2.4572,2.4572,2.4572,2.4572,2.4572,2.4572,2.4572,0.0,0.0,2.7077,2.7396,2.7454,2.7585,2.8001,2.8099,2.8216,2.8633,2.8697,2.8834,2.9291,2.8961,2.876,2.916,2.9222,2.9389,2.9856,3.0355,3.0723,3.0879,3.0913,0.0,0.0,0.0,0.0,3.002,3.005,3.005,3.005,3.005,2.9691,2.8881,2.8868,2.8734,2.8463,2.8985,2.9611,3.0297,2.9184,2.9318,3.0519,2.9397,2.9948,3.1737,3.1174,3.1402,3.2105,3.1567,3.1346,3.1365,3.1447,3.1471,3.1399,3.0618,2.9814,2.8819,2.6802,2.6159,2.6037,2.4851,2.4679,2.4716,2.3517,2.3331,2.3496,2.3496,2.3558,2.3621,2.3621,2.3719,2.3839,2.4008,2.408,2.4115,2.4284,2.4324,2.4351,2.4457,2.4471,2.4564,2.4877,2.493,2.4997,2.5165,2.505,2.493,2.493,2.5104,2.5192,2.5192,2.5192,2.5192,2.5192,2.5192,2.5192,2.5192,2.5192,2.5192,2.5192,2.5192,2.5192,2.5192,2.5192,2.5192,2.5192,2.5192,2.5192,2.5192,2.5192,2.5192,2.7422,2.7467,2.7539,2.7839,2.7917,2.8021,2.8418,2.8516,2.8633,2.9062,2.9141,2.9277,2.9721,2.9799,2.9955,3.0371,3.0449,3.0561,3.0874,3.0913,3.0913,3.0913,3.0913,3.0913,0.0,0.0,0.0,3.0913,3.1035,3.1113,3.1113,3.1284,3.1014,3.0232,3.0202,3.0332,3.0593,3.0593,3.121,3.2398,3.1463,3.1585,3.2602,3.1507,3.1752,3.3008,3.3008,3.3262,3.3652,3.3652,3.3734,3.3871,3.3871,3.3871,3.3762,3.2891,3.2576,3.2191,2.9543,2.8627,2.8443,2.7268,2.7036,2.7,2.5827,2.5624,2.5798,2.5798,2.5392,2.5101,2.5799,2.5042,2.4309,2.516,2.4852,2.4391,2.4559,2.4679,2.4778,2.4778,2.4858,2.4991,2.5197,2.5237,2.5291,2.5459,2.5457,2.5377,2.527,2.5398,2.5499,2.5499,2.5499,2.5499,2.5499,2.5499,2.5499,2.5499,2.5499,2.5499,2.5499,2.5499,2.5499,2.5499,2.5499,2.5499,2.5499,2.5499,2.5499,2.5499,2.5499,2.5499,2.8197,2.8314,2.8301,2.8334,2.832,2.8437,2.8834,2.8932,2.9068,2.9526,2.9637,2.9741,0.0,0.0,3.0371,3.0835,3.0913,3.0913,3.0913,3.0913,3.0913,0.0,0.0,0.0,0.0,0.0,0.0,3.1011,0.0,3.1548,3.1548,3.1968,3.2218,3.2237,3.2237,3.2237,3.2257,3.2257,3.2437,3.2847,3.3226,3.3422,3.3441,3.3441,3.3461,3.348,3.348,3.373,3.4118,3.4118,3.4352,3.4707,3.4707,3.4707,3.4707,3.4726,3.4726,3.4247,3.0903,2.9697,2.9663,2.9578,2.9544,2.9544,2.9441,2.9441,2.944,2.9337,2.8267,2.7583,2.9309,2.7374,2.5391,2.7245,2.629,2.4935,2.4824,2.5052,2.5254,2.5141,2.5331,2.5531,2.5531,2.5621,2.5711,2.5711,2.6055,2.6136,2.559,2.5545,2.5558,2.5558,2.5558,2.5558,2.5558,2.5558,2.5558,2.5558,2.5558,2.5558,2.5558,2.5558,2.5558,2.5558,2.5558,2.5558,2.5558,2.5558,2.5558,2.5558,2.5558,2.5558,2.8262,2.8314,2.8359,2.8658,2.8756,2.8867,2.9311,2.9408,2.9545,2.9955,3.0053,3.019,0.0,0.0,0.0,3.0879,3.0913,0.0,3.0913,3.0913,0.0,0.0,0.0,3.1352,3.1352,3.1773,0.0,0.0,3.1949,3.2027,3.2027,3.2124,3.2335,3.2633,3.2652,3.2793,3.3105,3.309,3.3164,3.3246,3.3363,3.3578,3.3922,3.3922,3.4098,3.4375,3.4375,3.4434,3.4547,3.4547,3.4609,3.4707,3.4707,3.4707,3.4746,3.5078,3.5215,3.5137,3.4533,3.3891,3.3113,3.1846,3.1535,3.1475,3.0169,2.9901,2.9765,2.8382,2.8711,2.9257,2.8361,2.8753,2.9495,2.9984,2.9957,2.9411,2.7888,2.7659,2.7248,2.5702,2.5657,2.5858,2.5858,2.7286,2.84,2.84,2.9808,2.9651,2.6291,2.6058,2.6172,2.6172,2.6172,2.6172,2.6172,2.6172,2.6172,2.6172,2.6172,2.6172,2.6172,2.6172,2.6172,2.6172,2.6172,2.6172,2.6172,2.6172,2.6172,2.6172,2.6172,2.6172,2.8314,2.8437,2.8633,2.884,2.9049,2.9316,2.976,2.9858,2.9995,3.0424,3.0508,0.0,0.0,0.0,0.0,0.0,0.0,0.0,3.0913,3.1055,3.1172,0.0,3.1543,0.0,3.1797,3.2203,3.2457,0.0,3.2457,3.2457,3.2457,3.2633,3.2832,3.3066,3.3051,3.3281,3.3711,3.3711,3.3809,3.3968,3.3968,3.4101,3.4352,3.4352,3.4489,3.4707,0.0,3.4824,3.5,3.5,3.5117,3.5257,3.5257,3.5257,3.5312,3.5566,3.5664,3.5703,3.592,3.5803,3.5376,3.4206,3.3909,3.3858,3.2862,3.282,3.2878,3.182,3.1833,3.2096,3.1864,3.1532,3.1247,3.1176,3.1378,3.1048,2.9038,2.9389,2.979,2.8785,2.8715,2.8853,2.8853,2.9911,3.0765,3.0765,3.0977,3.0307,2.8013,2.8515,2.9095,2.9095,2.8271,2.7723,2.7723,2.6906,2.6406,2.6406,2.6406,2.6406,2.6406,2.6406,2.6406,2.6406,2.6406,2.6406,2.6406,2.6406,2.6406,2.6406,2.6406,2.6406,2.8373,2.8619,2.8932,2.9049,2.9389,2.9794,3.021,3.0293,3.041,3.0835,0.0,3.0913,3.0913,3.0913,3.0913,3.0913,0.0,3.0976,3.0976,3.1328,3.1587,3.1587,3.2007,3.2276,3.2276,3.2652,3.2871,3.2871,3.293,3.2965,3.2871,3.3265,3.3519,3.3578,3.3578,3.3769,3.4192,3.4176,3.4352,3.4707,3.4707,3.4726,3.4785,3.4785,3.4824,3.4883,0.0,0.0,3.5488,3.5488,3.5684,3.5999,3.5999,3.6038,3.6096,3.6096,3.6135,3.6174,3.6174,3.6445,3.6697,3.6233,3.6135,3.6174,3.6174,3.6465,3.674,3.6478,3.5672,3.5186,3.6577,3.4685,3.2399,3.2291,3.2397,3.1988,2.995,3.086,3.2163,3.2439,3.2505,3.2522,3.2571,3.28,3.3006,3.3057,3.1776,3.0903,3.1195,3.1531,3.1766,3.1814,3.019,2.9115,2.9115,2.7529,2.6526,2.6526,2.6526,2.6526,2.6526,2.6526,2.6526,2.6526,2.6526,2.6526,2.6526,2.6526,2.6526,2.6526,2.6526,2.6526,2.8711,2.8853,2.9068,2.9805,3.0053,3.0229,3.0664,3.0776,0.0,0.0,0.0,3.0913,3.0913,3.0913,3.0913,3.0913,0.0,0.0,0.0,0.0,3.2081,0.0,0.0,0.0,0.0,0.0,0.0,0.0,0.0,3.3707,3.3324,3.373,3.4137,3.4473,3.4473,3.4512,3.4606,3.4606,3.4629,3.4707,3.4707,3.4902,3.5273,3.5273,3.5469,3.5764,3.5764,0.0,3.5901,3.5901,3.594,3.5999,3.5999,3.623,3.658,3.658,3.6795,3.707,3.707,3.7129,3.7146,3.6716,3.6797,3.707,3.707,3.7129,3.6869,3.5325,3.5809,3.6524,3.5293,3.5876,3.6806,3.6788,3.709,3.6807,3.4761,3.3319,3.2423,3.2489,3.2505,3.2607,3.2943,3.4408,3.5654,3.5994,3.7211,3.8103,3.8159,3.2095,2.7896,2.8166,2.7885,2.7662,2.7662,2.7331,2.7128,2.7128,2.7128,2.7128,2.7128,2.7128,2.7128,2.7128,2.7128,2.7128,2.7128,2.7128,2.7128,2.7128,2.7128,2.7128,2.8853,2.9224,2.9687,3.0098,3.0371,3.0625,3.0854,0.0,0.0,0.0,0.0,3.0913,3.0913,0.0,0.0,0.0,0.0,0.0,0.0,0.0,0.0,0.0,0.0,0.0,0.0,0.0,0.0,0.0,0.0,3.4235,3.3789,3.4176,3.4508,3.4687,3.4707,3.4824,3.5059,3.5059,3.5176,3.5374,3.5374,3.5491,3.5723,3.5723,3.5823,3.5999,3.5999,0.0,3.6348,3.6348,3.6484,3.668,3.668,3.6816,3.701,3.701,3.7129,3.7305,3.7305,3.7441,3.7598,3.7383,3.7305,3.7305,3.7305,3.7461,3.7421,3.6526,3.7092,3.777,3.6867,3.7454,3.7989,3.6915,3.6809,3.707,3.737,3.6663,3.6062,3.6298,3.6335,3.6426,3.6607,3.7461,3.8198,3.8367,3.8348,3.8347,3.8515,3.3947,3.1479,3.3637,3.2889,3.2237,3.2237,3.022,2.8961,2.8961,2.7914,2.7309,2.7309,2.7309,2.7309,2.7309,2.7309,2.7309,2.7309,2.7309,2.7309,2.7309,2.7309,2.7309,2.9127,2.9687,3.0215,3.0312,3.0639,3.0913,3.0913,3.0913,0.0,0.0,3.0913,3.0913,3.0913,0.0,0.0,0.0,0.0,0.0,0.0,0.0,0.0,0.0,0.0,0.0,0.0,0.0,0.0,0.0,0.0,0.0,3.4407,3.4684,3.4883,3.498,3.498,3.5156,3.5527,3.5527,3.5703,3.5999,3.5999,3.6057,3.6135,3.6135,3.6211,3.6272,3.6272,0.0,0.0,3.6834,3.701,3.7305,3.7305,3.7344,3.7441,3.7441,3.75,3.7578,3.7578,3.7793,3.8048,3.8048,3.7832,3.7578,3.7578,3.7812,3.8048,3.8048,3.8319,3.8592,3.8592,3.8592,3.8209,3.6664,3.6366,3.698,3.8923,3.9355,3.9453,3.9824,3.9902,3.9922,4.0019,4.0039,4.0059,4.0156,3.8784,3.7839,3.8111,3.6719,3.6849,3.9872,3.7882,3.6162,3.5676,3.2599,3.0488,3.0038,2.8433,2.7496,2.7496,2.7496,2.7496,2.7496,2.7496,2.7496,2.7496,2.7496,2.7496,2.7496,2.7496,2.7496,2.9863,3.0137,3.0293,3.0723,3.0874,3.0913,3.0913,0.0,0.0,3.0913,3.0913,3.0913,3.0913,0.0,0.0,0.0,0.0,3.2711,0.0,0.0,0.0,0.0,0.0,0.0,0.0,0.0,0.0,0.0,0.0,0.0,3.5273,3.5329,3.5508,3.5862,3.5881,3.5901,3.594,3.594,3.5959,3.5999,3.5999,3.623,3.6656,3.6656,3.6834,3.7187,3.7187,0.0,0.0,3.7246,3.7266,3.7305,3.7305,3.7521,3.7853,3.7853,3.8105,3.8475,3.8475,3.8495,3.8534,3.8534,3.8514,3.8475,3.8475,3.8514,3.8534,3.8534,3.8573,3.8592,3.8592,3.8592,3.8635,3.8821,3.9192,3.9559,3.9786,3.9824,3.9844,3.9883,3.9902,4.0019,4.0371,4.045,4.0586,4.1015,4.0919,4.0802,4.0841,4.0666,4.0685,4.1035,3.7371,3.4087,3.2063,3.1529,3.0505,2.8526,2.8224,2.8119,2.8119,2.8119,2.8119,2.8119,2.8119,2.8119,2.8119,2.8119,2.8119,2.8119,2.8119,2.8119,3.0098,3.0424,3.0678,3.084,3.0913,3.0913,3.0913,0.0,3.0913,3.0913,3.0913,3.0976,3.123,3.1391,3.1665,0.0,0.0,0.0,3.3144,0.0,0.0,0.0,0.0,0.0,0.0,0.0,0.0,0.0,0.0,0.0,3.5745,3.5745,3.5823,3.5999,3.5999,3.6152,3.6423,3.6423,3.6543,3.6777,3.6777,3.6875,3.7068,3.7068,3.7166,3.7305,3.7305,0.0,0.0,3.7658,3.7832,3.8084,3.8084,3.8182,3.832,3.832,3.8436,3.8592,3.8592,3.8592,3.8631,3.8885,3.8945,3.8925,3.8671,3.8592,3.8651,3.8887,3.8945,3.9042,3.9315,3.9394,3.9414,3.957,3.9766,3.9961,4.0196,4.0254,4.0351,4.0644,4.0683,4.0742,4.0879,4.0918,4.0976,4.1172,4.1191,4.1191,4.1191,4.1191,4.1191,4.1191,3.9648,3.8251,3.7379,3.6081,3.4955,3.4083,3.1578,3.0114,3.0114,2.8901,2.82,2.82,2.82,2.82,2.82,2.82,2.82,2.82,2.82,2.82,3.0371,3.0659,3.0913,3.0913,3.0913,3.0913,0.0,3.0913,3.0913,3.0913,3.0996,3.1172,3.145,3.1704,3.209,3.2695,3.2891,3.3125,3.3555,3.3903,3.4137,0.0,0.0,0.0,0.0,0.0,0.0,0.0,0.0,0.0,3.6369,3.6369,3.633,3.6211,3.6311,3.6543,3.6873,3.6873,3.7029,3.7305,3.7305,3.7363,3.748,3.748,3.7559,3.7676,0.0,0.0,0.0,3.8107,3.8301,3.8592,3.8592,3.8592,3.8592,3.8592,3.8671,3.8788,3.8788,3.8866,3.9042,3.9316,3.9414,3.9355,3.9081,3.8983,3.9042,3.9316,3.9414,3.9492,3.9805,3.998,4.0078,4.0078,4.0176,4.0351,4.0644,4.0723,4.0801,4.1133,4.1191,4.1191,4.1191,4.1191,4.1191,4.1191,4.1191,4.1191,4.1191,4.1191,4.1191,4.1191,4.1191,4.0938,4.0275,3.8803,3.7637,3.6982,3.4083,3.2381,3.2381,3.0301,2.9139,2.9139,2.8516,2.82,2.82,2.82,2.82,2.82,2.82,2.82,3.0776,3.0893,3.0913,3.0913,3.0913,3.0913,0.0,3.0913,3.0913,3.0913,3.123,3.1489,3.1508,3.2192,3.2793,3.2793,3.3129,0.0,3.4036,3.4114,0.0,0.0,0.0,0.0,0.0,0.0,0.0,0.0,0.0,0.0,3.7266,3.7285,3.709,3.6714,3.7088,3.7285,3.7285,3.7285,3.7285,3.7305,3.7305,3.7519,3.7874,3.7874,3.8164,0.0,0.0,0.0,0.0,3.8592,3.8611,3.8592,3.8592,3.8592,3.8592,3.8592,3.8846,3.9199,3.9199,3.9492,3.9883,3.9883,3.9883,3.9883,3.9883,3.9883,3.9883,3.9883,3.9883,3.9883,3.9902,4.0195,4.0489,4.0489,4.084,4.1191,4.1191,4.1191,4.1191,4.1191,4.1191,4.1191,4.1191,4.1191,4.1191,4.1191,4.1191,4.1191,4.1191,4.1191,4.1191,4.1191,4.1191,4.0314,3.8114,3.7916,3.6982,3.4874,3.4692,3.4672,3.4672,3.2546,3.1386,3.1386,2.9286,2.82,2.82,2.82,2.82,2.82,2.82,2.82,3.0874,3.0913,3.0913,3.0913,3.0913,3.0913,3.0913,3.0913,3.0991,3.1255,3.1411,3.1684,3.2285,3.2617,3.2891,3.3184,3.3594,3.3922,0.0,0.0,0.0,0.0,0.0,0.0,0.0,0.0,0.0,0.0,0.0,0.0,3.7285,3.756,3.7539,3.7109,3.7226,3.7441,3.7716,3.7716,3.7871,3.8182,3.8182,3.826,3.8377,3.8377,3.8456,0.0,0.0,0.0,0.0,3.8592,3.8768,3.9004,3.9004,3.9218,3.9491,3.9491,3.957,3.9668,3.9668,3.9766,3.9941,4.0215,4.0313,4.0371,4.0703,4.0371,3.9961,4.0215,4.0527,4.0781,4.0781,4.0879,4.0996,4.0996,4.1094,4.1191,4.1191,4.1191,4.1191,4.1191,4.1191,4.1191,4.1191,4.1191,4.1191,4.1191,4.1191,4.1191,4.1191,4.1191,4.1191,4.1191,4.1191,4.0919,4.0216,4.0158,3.9864,3.9197,3.7717,3.6882,3.6882,3.3349,3.1392,3.1392,2.9286,2.82,2.82,2.82,2.82,2.82,2.82,2.82,0.0,3.0913,3.0913,3.0913,3.0913,0.0,3.0913,3.1016,3.1211,3.145,3.1762,3.2168,3.2695,3.293,3.3164,3.3578,3.3903,3.4196,3.4547,0.0,0.0,0.0,0.0,0.0,0.0,0.0,0.0,0.0,0.0,0.0,3.7773,3.8027,3.8047,3.7811,3.7791,3.791,3.8164,3.8146,3.8301,3.8592,3.8592,3.8592,3.8592,3.8592,0.0,0.0,0.0,0.0,0.0,3.91,3.9257,3.9453,3.9453,3.9648,3.9902,3.9902,4.0,4.0137,4.0137,4.0234,4.043,4.0684,4.0762,4.082,4.1113,4.082,4.043,4.0703,4.0957,4.1191,4.1191,4.1191,4.1191,4.1191,4.1191,4.1191,4.1191,4.1191,4.1191,4.1191,4.1191,4.1191,4.1191,4.1191,4.1191,4.1191,4.1191,4.1191,4.1191,4.1191,4.1191,4.1191,4.1191,4.1191,4.1191,4.1191,4.1191,4.1191,3.9903,3.9139,3.9139,3.5742,3.3859,3.3859,3.1758,3.0655,3.0655,2.9815,2.8985,2.82,2.82,2.82,0.0,3.0913,3.0913,3.0913,3.0913,3.0913,3.0952,3.1216,0.0,3.1587,3.2246,3.2812,3.2832,3.3184,3.3578,3.402,3.4153,3.4486,3.529,3.5449,0.0,0.0,0.0,0.0,0.0,0.0,0.0,0.0,0.0,0.0,3.8573,3.8592,3.8592,3.8592,3.8592,3.8592,3.8592,3.8592,3.8592,3.8592,3.8631,3.8631,3.8631,3.8671,0.0,0.0,0.0,0.0,0.0,3.9902,3.9922,3.9941,3.9941,3.9961,3.998,3.998,4.0234,4.0547,4.0547,4.084,4.1191,4.1191,4.1191,4.1191,4.1191,4.1191,4.1191,4.1191,4.1191,4.1191,4.1191,4.1191,4.1191,4.1191,4.1191,4.1191,4.1191,4.1191,4.1191,4.1191,4.1191,4.1191,4.1191,4.1191,4.1191,4.1191,4.1191,4.1191,4.1191,4.1191,4.1191,4.1191,4.1191,4.1191,4.1191,4.1191,4.1191,4.1191,4.1191,4.1191,4.1191,3.908,3.7896,3.7896,3.5641,3.4388,3.4225,3.2176,3.0135,2.82,2.82,2.82,3.0913,0.0,3.0913,3.0913,3.0913,3.0976,0.0,3.143,0.0,0.0,0.0,3.2891,3.3207,3.3633,3.3961,3.4095,3.4665,3.5173,3.5371,0.0,0.0,0.0,0.0,0.0,0.0,0.0,0.0,0.0,0.0,3.8495,3.8592,3.8592,3.8592,3.8592,3.8592,3.8592,3.8592,3.8592,3.8592,3.8592,3.8925,3.9062,3.9062,3.9414,0.0,0.0,0.0,0.0,3.9902,3.9902,4.0078,4.0352,4.0352,4.0586,4.0898,4.0898,4.0957,4.1035,4.1035,4.1113,4.1191,4.1191,4.1191,4.1191,4.1191,4.1191,4.1191,4.1191,4.1191,4.1191,4.1191,4.1191,4.1191,4.1191,4.1191,4.1191,4.1191,4.1191,4.1191,4.1191,4.1191,4.1191,4.1191,4.1191,4.1191,4.1191,4.1191,4.1191,4.1191,4.1191,4.1191,4.1191,4.1191,4.1191,4.1191,4.1191,4.1191,4.1191,4.1191,4.1191,4.1191,3.908,3.7896,3.7896,3.4144,3.1366,2.9732,2.9202,2.8691,2.82,2.82,2.82,3.0913,3.0913,3.0913,3.0913,3.1035,3.1216,3.145,0.0,0.0,0.0,0.0,0.0,3.3633,0.0,0.0,3.4626,3.5078,3.5527,0.0,0.0,0.0,0.0,0.0,0.0,0.0,0.0,0.0,0.0,0.0,3.8592,3.8592,3.8768,3.8885,3.8885,3.9081,3.91,3.8885,3.8885,3.8983,3.9198,3.9414,3.9512,3.9531,3.9785,4.0,0.0,0.0,0.0,4.0507,4.0507,4.0605,4.082,4.082,4.0996,4.1191,4.1191,4.1191,4.1191,4.1191,4.1191,4.1191,4.1191,4.1191,4.1191,4.1191,4.1191,4.1191,4.1191,4.1191,4.1191,4.1191,4.1191,4.1191,4.1191,4.1191,4.1191,4.1191,4.1191,4.1191,4.1191,4.1191,4.1191,4.1191,4.1191,4.1191,4.1191,4.1191,4.1191,4.1191,4.1191,4.1191,4.1191,4.1191,4.1191,4.1191,4.1191,4.1191,4.1191,4.1191,4.1191,4.1191,4.0041,3.9413,3.9413,3.7102,3.4834,3.2648,3.2648,3.2134,3.1179,3.1179,3.1179,3.0913,3.0937,3.0996,3.0996,3.125,3.1528,3.1665,0.0,0.0,0.0,0.0,0.0,0.0,0.0,0.0,0.0,0.0,0.0,0.0,0.0,0.0,0.0,0.0,0.0,0.0,0.0,0.0,0.0,0.0,3.869,3.869,3.9082,3.9316,3.9316,3.9687,3.9746,3.9414,3.9336,3.9512,3.9902,3.9961,4.0,4.0,4.0077,4.0293,0.0,0.0,0.0,4.1191,4.1191,4.1191,4.1191,4.1191,4.1191,4.1191,4.1191,4.1191,4.1191,4.1191,4.1191,4.1191,4.1191,4.1191,4.1191,4.1191,4.1191,4.1191,4.1191,4.1191,4.1191,4.1191,4.1191,4.1191,4.1191,4.1191,4.1191,4.1191,4.1191,4.1191,4.1191,4.1191,4.1191,4.1191,4.1191,4.1191,4.1191,4.1191,4.1191,4.1191,4.1191,4.1191,4.1191,4.1191,4.1191,4.1191,4.1191,4.1191,4.1191,4.1191,4.1191,4.1191,4.1191,4.1055,4.0704,4.0704,3.961,3.7419,3.7419,3.6482,3.4692,3.4347,3.4205,3.0913,3.1152,3.1411,3.1411,3.145,3.1684,0.0,0.0,0.0,0.0,0.0,0.0,0.0,0.0,0.0,0.0,0.0,0.0,0.0,0.0,0.0,0.0,0.0,0.0,0.0,0.0,0.0,0.0,0.0,3.9101,3.9101,3.9531,3.9785,3.9785,3.9863,4.0039,4.0293,3.9961,3.9824,3.9902,4.0254,4.041,4.041,4.082,4.1035,0.0,0.0,4.1133,4.1191,4.1191,4.1191,4.1191,4.1191,4.1191,4.1191,4.1191,4.1191,4.1191,4.1191,4.1191,4.1191,4.1191,4.1191,4.1191,4.1191,4.1191,4.1191,4.1191,4.1191,4.1191,4.1191,4.1191,4.1191,4.1191,4.1191,4.1191,4.1191,4.1191,4.1191,4.1191,4.1191,4.1191,4.1191,4.1191,4.1191,4.1191,4.1191,4.1191,4.1191,4.1191,4.1191,4.1191,4.1191,4.1191,4.1191,4.1191,4.1191,4.1191,4.1191,4.1191,4.1191,4.1191,4.0314,3.8449,3.8409,3.7359,3.5177,3.5177,3.5016,3.4651,3.2776,3.1908,3.0913,3.1177,3.1567,3.1816,3.2031,3.2305,0.0,0.0,0.0,0.0,0.0,0.0,0.0,0.0,0.0,0.0,0.0,0.0,0.0,0.0,0.0,0.0,0.0,0.0,0.0,0.0,0.0,0.0,0.0,0.0,3.957,4.0,4.0215,4.0215,4.0469,4.0703,4.0879,4.0684,4.0605,4.0605,4.0781,4.0879,4.0879,4.1094,4.1191,4.1191,0.0,4.1191,4.1191,4.1191,4.1191,4.1191,4.1191,4.1191,4.1191,4.1191,4.1191,4.1191,4.1191,4.1191,4.1191,4.1191,4.1191,4.1191,4.1191,4.1191,4.1191,4.1191,4.1191,4.1191,4.1191,4.1191,4.1191,4.1191,4.1191,4.1191,4.1191,4.1191,4.1191,4.1191,4.1191,4.1191,4.1191,4.1191,4.1191,4.1191,4.1191,4.1191,4.1191,4.1191,4.1191,4.1191,4.1191,4.1191,4.1191,4.1191,4.1191,4.1191,4.1191,4.1191,4.1191,4.1191,4.0724,3.9688,3.9669,3.9216,3.8211,3.8211,3.8211,3.8192,3.7179,3.6702,3.1016,3.1348,3.1777,0.0,0.0,0.0,0.0,0.0,0.0,0.0,0.0,0.0,0.0,0.0,0.0,0.0,0.0,0.0,0.0,0.0,0.0,0.0,0.0,0.0,0.0,0.0,0.0,0.0,0.0,0.0,4.0039,4.0449,4.0664,4.0664,4.0996,4.1191,4.1191,4.1191,4.1191,4.1191,4.1191,4.1191,4.1191,4.1191,4.1191,4.1191,4.1191,4.1191,4.1191,4.1191,4.1191,4.1191,4.1191,4.1191,4.1191,4.1191,4.1191,4.1191,4.1191,4.1191,4.1191,4.1191,4.1191,4.1191,4.1191,4.1191,4.1191,4.1191,4.1191,4.1191,4.1191,4.1191,4.1191,4.1191,4.1191,4.1191,4.1191,4.1191,4.1191,4.1191,4.1191,4.1191,4.1191,4.1191,4.1191,4.1191,4.1191,4.1191,4.1191,4.1191,4.1191,4.1191,4.1191,4.1191,4.1191,4.1191,4.1191,4.1191,4.1191,4.1191,4.1191,4.1191,4.1191,4.1191,4.1191,4.1191,4.1191,4.1191,4.1191,4.1191,4.0685,4.0431,3.1367,3.1812,3.2257,3.2672,0.0,0.0,0.0,0.0,0.0,0.0,0.0,0.0,0.0,0.0,0.0,0.0,0.0,0.0,0.0,0.0,0.0,0.0,0.0,0.0,0.0,0.0,0.0,0.0,0.0,0.0,4.045,4.0898,4.1152,4.1152,4.1172,4.1191,4.1191,4.1191,4.1191,4.1191,4.1191,4.1191,4.1191,4.1191,4.1191,4.1191,4.1191,4.1191,4.1191,4.1191,4.1191,4.1191,4.1191,4.1191,4.1191,4.1191,4.1191,4.1191,4.1191,4.1191,4.1191,4.1191,4.1191,4.1191,4.1191,4.1191,4.1191,4.1191,4.1191,4.1191,4.1191,4.1191,4.1191,4.1191,4.1191,4.1191,4.1191,4.1191,4.1191,4.1191,4.1191,4.1191,4.1191,4.1191,4.1191,4.1191,4.1191,4.1191,4.1191,4.1191,4.1191,4.1191,4.1191,4.1191,4.1191,4.1191,4.1191,4.1191,4.1191,4.1191,4.1191,4.1191,4.1191,4.1191,4.1191,4.1191,4.1191,4.1191,4.1191,4.1152,3.908,3.8134,3.145,3.2031,3.2613,0.0,0.0,0.0,0.0,0.0,0.0,0.0,0.0,0.0,0.0,0.0,0.0,0.0,0.0,0.0,0.0,0.0,0.0,0.0,0.0,0.0,0.0,0.0,0.0,0.0,0.0,0.0,4.0937,4.1094,4.1191,4.1191,4.1191,4.1191,4.1191,4.1191,4.1191,4.1191,4.1191,4.1191,4.1191,4.1191,4.1191,4.1191,4.1191,4.1191,4.1191,4.1191,4.1191,4.1191,4.1191,4.1191,4.1191,4.1191,4.1191,4.1191,4.1191,4.1191,4.1191,4.1191,4.1191,4.1191,4.1191,4.1191,4.1191,4.1191,4.1191,4.1191,4.1191,4.1191,4.1191,4.1191,4.1191,4.1191,4.1191,4.1191,4.1191,4.1191,4.1191,4.1191,4.1191,4.1191,4.1191,4.1191,4.1191,4.1191,4.1191,4.1191,4.1191,4.1191,4.1426,4.166,4.1933,4.1953,4.1953,4.1953,4.1699,4.1562,4.1562,4.1816,4.1953,4.1953,4.1953,4.1953,4.1953,4.1953,4.1953,4.1933,4.11,4.0702,3.168,3.2246,3.2832,0.0,0.0,0.0,0.0,0.0,0.0,0.0,0.0,0.0,0.0,0.0,0.0,0.0,0.0,0.0,0.0,0.0,0.0,0.0,0.0,0.0,0.0,0.0,0.0,0.0,0.0,0.0,0.0,4.1191,4.1191,4.1191,4.1191,4.1191,4.1191,4.1191,4.1191,4.1191,4.1191,4.1191,4.1191,4.1191,4.1191,4.1191,4.1191,4.1191,4.1191,4.1191,4.1191,4.1191,4.1191,4.1191,4.1191,4.1191,4.1191,4.1191,4.1191,4.1191,4.1191,4.1191,4.1191,4.1191,4.1191,4.1191,4.1191,4.1191,4.1191,4.1191,4.1191,4.1191,4.1191,4.1191,4.1191,4.1191,4.1191,4.1191,4.1191,4.1191,4.1191,4.1191,4.1191,4.1191,4.1191,4.1191,4.1191,4.125,4.1367,4.1387,4.1445,4.1582,4.1836,4.2089,4.2382,4.2402,4.2402,4.2402,4.2285,4.2148,4.2012,4.2246,4.2402,4.2402,4.2402,4.2402,4.2402,4.2402,4.2402,4.2402,4.2402,4.2402,3.2081,3.2496,0.0,0.0,0.0,0.0,0.0,0.0,0.0,0.0,0.0,0.0,0.0,0.0,0.0,0.0,0.0,0.0,0.0,0.0,0.0,0.0,0.0,0.0,0.0,0.0,0.0,0.0,0.0,0.0,0.0,4.1191,4.1191,4.1191,4.1191,4.1191,4.1191,4.1191,4.1191,4.1191,4.1191,4.1191,4.1191,4.1191,4.1191,4.1191,4.1191,4.1191,4.1191,4.1191,4.1191,4.1191,4.1191,4.1191,4.1191,4.1191,4.1191,4.1191,4.1191,4.1191,4.1191,4.1191,4.1191,4.1191,4.1191,4.1191,4.1191,4.1191,4.1191,4.1191,4.1191,4.1191,4.1191,4.1191,4.1191,4.1191,4.1191,4.1191,4.1191,4.1191,4.1191,4.1191,4.1191,4.1191,4.1211,4.1211,4.1211,4.1348,4.1758,4.1816,4.1973,4.2363,4.2421,4.2421,4.2421,4.2421,4.2421,4.2421,4.2851,4.2911,4.2441,4.2421,4.2421,4.2421,4.2421,4.2421,4.2421,4.2421,4.2421,4.2421,4.2421,4.2421,3.2515,3.291,0.0,0.0,0.0,0.0,0.0,0.0,0.0,0.0,0.0,0.0,0.0,0.0,0.0,0.0,0.0,0.0,0.0,0.0,0.0,0.0,0.0,0.0,0.0,0.0,0.0,0.0,0.0,0.0,0.0,4.1191,4.1191,4.1191,4.1191,4.1191,4.1191,4.1191,4.1191,4.1191,4.1191,4.1191,4.1191,4.1191,4.1191,4.1191,4.1191,4.1191,4.1191,4.1191,4.1191,4.1191,4.1191,4.1191,4.1191,4.1191,4.1191,4.1191,4.1191,4.1191,4.1191,4.1191,4.1191,4.1191,4.1191,4.1191,4.1191,4.1191,4.1191,4.1191,4.1191,4.1191,4.1191,4.1191,4.1191,4.1191,4.1191,4.1191,4.1191,4.1191,4.1191,4.1191,4.1191,4.1445,4.1621,4.1621,4.1875,4.2089,4.2207,4.2226,4.2382,4.2832,4.2891,4.3008,4.3301,4.33,4.33,4.33,4.3437,4.332,4.2891,4.3164,4.33,4.33,4.33,4.33,4.33,4.33,4.33,4.33,4.33,4.33,3.2861,0.0,0.0,0.0,0.0,0.0,0.0,0.0,0.0,0.0,0.0,0.0,0.0,0.0,0.0,0.0,0.0,0.0,0.0,0.0,0.0,0.0,0.0,0.0,0.0,0.0,0.0,0.0,0.0,0.0,0.0,4.1191,4.1191,4.1191,4.1191,4.1191,4.1191,4.1191,4.1191,4.1191,4.1191,4.1191,4.1191,4.1191,4.1191,4.1191,4.1191,4.1191,4.1191,4.1191,4.1191,4.1191,4.1191,4.1191,4.1191,4.1191,4.1191,4.1191,4.1191,4.1191,4.1191,4.1191,4.1191,4.1191,4.1191,4.1191,4.1191,4.1191,4.1191,4.1191,4.1191,4.1191,4.1191,4.1191,4.1191,4.1191,4.1191,4.1191,4.1191,4.1191,4.1328,4.1445,4.1445,4.1777,4.2031,4.2031,4.2402,4.2695,4.2695,4.2812,4.3007,4.3321,4.3341,4.3437,4.3691,4.3711,4.3711,4.3711,4.3711,4.3594,4.336,4.3574,4.3711,4.3711,4.3711,4.3711,4.3711,4.3711,4.3711,4.3711,4.3711,4.3711,3.3355,0.0,0.0,0.0,0.0,0.0,0.0,0.0,0.0,0.0,0.0,0.0,0.0,0.0,0.0,0.0,0.0,0.0,0.0,0.0,0.0,0.0,0.0,0.0,0.0,0.0,0.0,0.0,0.0,0.0,0.0,4.1191,4.1191,4.1191,4.1191,4.1191,4.1191,4.1191,4.1191,4.1191,4.1191,4.1191,4.1191,4.1191,4.1191,4.1191,4.1191,4.1191,4.1191,4.1191,4.1191,4.1191,4.1191,4.1191,4.1191,4.1191,4.1191,4.1191,4.1191,4.1191,4.1191,4.1191,4.1191,4.1191,4.1191,4.1191,4.1191,4.1191,4.1191,4.1191,4.1191,4.1191,4.1191,4.1191,4.1191,4.1191,4.1191,4.123,4.125,4.125,4.1562,4.1855,4.1855,4.2187,4.248,4.2519,4.2871,4.3145,4.3145,4.3476,4.3711,4.3711,4.3711,4.3711,4.3711,4.3711,4.3711,4.3711,4.3711,4.3711,4.3711,4.3711,4.3711,4.3711,4.3711,4.3711,4.3711,4.3711,4.3711,4.3711,4.3711,4.3711,0.0,3.5159,0.0,0.0,0.0,0.0,0.0,0.0,0.0,0.0,0.0,0.0,0.0,0.0,0.0,0.0,0.0,0.0,0.0,0.0,0.0,0.0,0.0,0.0,0.0,0.0,0.0,0.0,0.0,0.0,4.1191,4.1191,4.1191,4.1191,4.1191,4.1191,4.1191,4.1191,4.1191,0.0,4.1191,4.1191,4.1191,4.1191,4.1191,4.1191,4.1191,4.1191,4.1191,4.1191,4.1191,4.1191,4.1191,4.1191,4.1191,4.1191,4.1191,4.1191,4.1191,4.1191,4.1191,4.1191,4.1191,4.1191,4.1191,4.1191,4.1191,4.1191,4.1191,4.1191,4.1191,4.1191,4.1191,4.1191,4.1191,4.1191,4.1191,4.1445,4.166,4.166,4.2012,4.2265,4.2265,4.2656,4.3047,4.3379,4.3516,4.3574,4.3574,4.3652,4.3711,4.3711,4.3711,4.3711,4.3711,4.3711,4.3711,4.3711,4.3711,4.3711,4.3711,4.3711,4.3711,4.3711,4.3711,4.3711,4.3711,4.3711,4.3711,4.3711,4.3711,4.3711,0.0,0.0,0.0,0.0,0.0,0.0,0.0,0.0,0.0,0.0,0.0,0.0,0.0,0.0,0.0,0.0,0.0,0.0,0.0,0.0,0.0,0.0,0.0,0.0,0.0,0.0,0.0,0.0,0.0,4.1191,4.1191,4.1191,4.1191,4.1191,4.1191,4.1191,4.1191,4.1191,4.1191,4.1191,4.1191,4.1191,4.1191,4.1191,4.1191,4.1191,4.1191,4.1191,4.1191,4.1191,4.1191,4.1191,4.1191,4.1191,4.1191,4.1191,4.1191,4.1191,4.1191,4.1191,4.1191,4.1191,4.1191,4.1191,4.1191,4.1191,4.1191,4.1191,4.1191,4.1191,4.1191,4.1348,4.1504,4.1504,4.1504,4.1504,4.1504,4.1797,4.2089,4.2089,4.2441,4.2734,4.2734,4.3086,4.3457,4.3672,4.3711,4.3711,4.3711,4.3711,4.3711,4.3711,4.3711,4.3711,4.3711,4.3711,4.3711,4.3711,4.3711,4.3711,4.3711,4.3711,4.3711,4.3711,4.3711,4.3711,4.3711,4.3711,4.3711,4.3711,4.3711,4.3711,0.0,0.0,0.0,0.0,0.0,0.0,0.0,0.0,0.0,0.0,0.0,0.0,0.0,0.0,0.0,0.0,0.0,0.0,0.0,0.0,0.0,0.0,0.0,0.0,0.0,0.0,0.0,0.0,0.0,4.1191,4.1191,4.1191,4.1191,4.1191,4.1191,4.1191,4.1191,4.1191,4.1191,4.1191,4.1191,4.1191,4.1191,4.1191,4.1191,4.1191,4.1191,4.1191,4.1191,4.1191,4.1191,4.1191,4.1191,4.1191,4.1191,4.1191,4.1191,4.1191,4.1191,4.1191,4.1191,4.1191,4.1191,4.1191,4.1191,4.1191,4.1191,4.1191,4.125,4.1308,4.1308,4.1601,4.1914,4.1914,4.1973,4.1992,4.1933,4.2226,4.2519,4.2519,4.2891,4.3204,4.3204,4.3476,4.3711,4.3711,4.3711,4.3711,4.3711,4.3711,4.3711,4.3711,4.3711,4.3711,4.3711,4.3711,4.3711,4.3711,4.3711,4.3711,4.3711,4.3711,4.3711,4.3711,4.3711,4.3711,4.3711,4.3711,4.3711,4.3711,4.3711,4.3711,0.0,0.0,3.8536,0.0,4.0229,0.0,0.0,0.0,0.0,0.0,0.0,0.0,0.0,0.0,0.0,0.0,0.0,0.0,0.0,0.0,0.0,0.0,0.0,0.0,0.0,0.0,0.0,0.0,4.1191,4.1191,4.1191,4.1191,4.1191,4.1191,4.1191,4.1191,4.1191,4.1191,4.1191,4.1191,4.1191,4.1191,4.1191,4.1191,4.1191,4.1191,4.1191,4.1191,4.1191,4.1191,4.1191,4.1191,4.1191,4.1191,4.1191,4.1191,4.1191,4.1191,4.1191,4.1191,4.1191,4.1191,4.1191,4.1191,4.1191,4.1191,4.1191,4.1191,4.1445,4.1719,4.1719,4.2031,4.2324,4.2324,4.2637,4.2793,4.2402,4.2676,4.3008,4.3008,4.334,4.3613,4.3613,4.3672,4.3711,4.3711,4.3711,4.3711,4.3711,4.3711,4.3711,4.3711,4.3711,4.3711,4.3711,4.3711,4.3711,4.3711,4.3711,4.3711,4.3711,4.3711,4.3711,4.3711,4.3711,4.3711,4.3711,4.3711,4.3711,4.3711,4.3711,4.3711,3.8872,3.8805,3.8723,0.0,4.0136,4.0685,3.9692,0.0,4.2661,4.2844,4.2474,4.2631,4.4241,4.4888,4.5079,4.4775,4.5617,0.0,0.0,0.0,0.0,0.0,0.0,0.0,0.0,0.0,0.0,0.0,4.1191,4.1191,4.1191,4.1191,4.1191,4.1191,4.1191,4.1191,4.1191,4.1191,4.1191,4.1191,4.1191,4.1191,4.1191,4.1191,4.1191,4.1191,4.1191,4.1191,4.1191,4.1191,4.1191,4.1191,4.1191,4.1191,4.1191,4.1191,4.1191,4.1191,4.1191,4.1191,4.1191,4.1191,4.1191,4.1191,4.1191,4.1367,4.1543,4.1543,4.1836,4.2128,4.2128,4.2461,4.2793,4.2793,4.3125,4.3379,4.3163,4.3301,4.3437,4.3437,4.3574,4.3711,4.3711,4.3711,4.3711,4.3711,4.3711,4.3711,4.3711,4.3711,4.3711,4.3711,4.3711,4.3711,4.3711,4.3711,4.3711,4.3711,4.3711,4.3711,4.3711,4.3711,4.3711,4.3711,4.3711,4.3711,4.3711,4.3711,4.3711,4.3711,4.3711,4.3711,0.0,0.0,4.0148,4.0337,4.1368,4.2178,0.0,0.0,4.484,0.0,4.533,4.5845,4.6583,4.6527,4.6403,4.6411,4.635,4.6662,4.7613,0.0,0.0,0.0,0.0,0.0,0.0,0.0,0.0,0.0,4.1191,4.1191,4.1191,4.1191,4.1191,4.1191,4.1191,4.1191,4.1191,4.1191,4.1191,4.1191,4.1191,4.1191,4.1191,4.1191,4.1191,4.1191,4.1191,4.1191,4.1191,4.1191,4.1191,4.1191,4.1191,4.1191,4.1191,4.1191,4.1191,4.1191,4.1191,4.1191,4.1191,4.1191,4.1269,4.1348,4.1348,4.1621,4.1953,4.1953,4.2246,4.2577,4.2577,4.291,4.3263,4.3263,4.3476,4.3711,4.3711,4.3711,4.3711,4.3711,4.3711,4.3711,4.3711,4.3711,4.3711,4.3711,4.3711,4.3711,4.3711,4.3711,4.3711,4.3711,4.3711,4.3711,4.3711,4.3711,4.3711,4.3711,4.3711,4.3711,4.3711,4.3711,4.3711,4.3711,4.3711,4.3711,4.3711,4.3711,4.3711,4.3711,4.3711,4.3711,0.0,4.2874,0.0,4.3281,4.5728,0.0,0.0,0.0,4.6808,4.738,4.7539,4.8399,5.12,5.0287,4.8498,4.669,4.9811,5.1834,5.0091,4.9926,4.9242,0.0,0.0,0.0,0.0,0.0,0.0,0.0,4.1191,4.1191,4.1191,4.1191,4.1191,4.1191,4.1191,4.1191,4.1191,4.1191,4.1191,4.1191,4.1191,4.1191,4.1191,4.1191,4.1191,4.1191,4.1191,4.1191,4.1191,4.1191,4.1191,4.1191,4.1191,4.1191,4.1191,4.1191,4.1191,4.1191,4.1191,4.1191,4.1191,4.1191,4.1465,4.1758,4.1758,4.205,4.2382,4.2382,4.2695,4.3067,4.3067,4.3359,4.3672,4.3672,4.3691,4.3711,4.3711,4.3711,4.3711,4.3711,4.3711,4.3711,4.3711,4.3711,4.3711,4.3711,4.3711,4.3711,4.3711,4.3711,4.3711,4.3711,4.3711,4.3711,4.3711,4.3711,4.3711,4.3711,4.3711,4.3711,4.3711,4.3711,4.3711,4.3711,4.3711,4.3711,4.3711,4.3711,4.3711,4.3711,4.3711,4.3711,0.0,0.0,0.0,4.3622,4.3512,4.3995,4.5493,4.544,4.5585,4.7343,4.8939,5.0428,5.1832,5.0516,4.9488,5.0414,5.0824,5.1233,5.1782,5.0787,4.973,4.9009,0.0,0.0,0.0,0.0,0.0,0.0,0.0,4.2522,4.1269,4.1191,4.1191,4.1191,4.1191,4.1191,4.1191,4.1191,4.1191,4.1191,4.1191,4.1191,4.1191,4.1191,4.1191,4.1191,4.1191,4.1191,4.1191,4.1191,4.1191,4.1191,4.1191,4.1191,4.1191,4.1191,4.1191,4.1191,4.1191,4.1191,4.123,4.1504,4.168,4.1855,4.2109,4.25,4.2851,4.2851,4.3144,4.3476,4.3476,4.3594,4.3711,4.3711,4.3711,4.3711,4.3711,4.3711,4.3711,4.3711,4.3711,4.3711,4.3711,4.3711,4.3711,4.3711,4.3711,4.3711,4.3711,4.3711,4.3711,4.3711,4.3711,4.3711,4.3711,4.3711,4.3711,4.3711,4.3711,4.3711,4.3711,4.3711,4.3711,4.3711,4.3711,4.3711,4.3711,4.3711,4.3711,4.3711,4.3711,4.3711,4.3445,0.0,0.0,0.0,4.4126,4.4402,4.7116,4.6948,4.6745,4.8548,5.0337,5.1724,5.2277,5.1292,5.0916,5.263,5.1816,5.1425,5.274,5.1782,5.0734,5.0091,4.7686,0.0,0.0,0.0,0.0,0.0,0.0,0.0,4.1308,4.1191,4.1191,4.1191,4.1191,4.1191,4.1191,4.1191,4.1191,4.1191,4.1191,4.1191,4.1191,4.1191,4.1191,4.1191,4.1191,4.1191,4.1191,4.1191,4.1191,4.1191,4.1191,4.1191,4.1191,4.1191,4.1191,4.1211,4.1348,4.1406,4.1465,4.1875,4.2109,4.2285,4.2558,4.2949,4.3302,4.3302,4.3496,4.3711,4.3711,4.3711,4.3711,4.3711,4.3711,4.3711,4.3711,4.3711,4.3711,4.3711,4.3711,4.3711,4.3711,4.3711,4.3711,4.3711,4.3711,4.3711,4.3711,4.3711,4.3711,4.3711,4.3711,4.3711,4.3711,4.3711,4.3711,4.3711,4.3711,4.3711,4.3711,4.3711,4.3769,4.3926,4.3926,4.4004,4.4141,4.4004,4.3926,4.3945,4.4061,4.4141,0.0,0.0,0.0,0.0,0.0,0.0,4.9615,0.0,5.0503,5.1172,5.1724,5.226,5.2795,5.2895,5.2895,5.2895,5.2895,5.2895,5.2895,5.2861,5.2119,5.0233,4.9943,4.9153,0.0,0.0,0.0,0.0,4.4191,4.3302,4.1308,4.1191,4.1191,4.1191,4.1191,4.1191,4.1191,4.1191,4.1191,4.1191,4.1191,4.1191,4.1191,4.1191,4.1191,4.1191,4.1191,4.1191,4.1191,4.1191,4.1191,4.1191,4.1191,4.1191,4.1191,4.1211,4.1211,4.1269,4.168,4.1816,4.1894,4.2285,4.2734,4.3106,4.3106,4.3399,4.3711,4.3711,4.3711,4.3711,4.3711,4.3711,4.3711,4.3711,4.3711,4.3711,4.3711,4.3711,4.3711,4.3711,4.3711,4.3711,4.3711,4.3711,4.3711,4.3711,4.3711,4.3711,4.3711,4.3711,4.3711,4.3711,4.3711,4.3711,4.3711,4.3711,4.3711,4.3711,4.3711,4.373,4.373,4.373,4.3965,4.4414,4.4414,4.4609,4.4998,4.4609,4.4414,4.4433,4.4822,4.5018,4.5892,0.0,0.0,0.0,0.0,0.0,0.0,0.0,4.9083,5.1397,5.2,5.226,5.2795,5.2895,5.2895,5.2895,5.2895,5.2895,5.2895,5.1694,5.0587,5.0074,4.8722,4.8199,4.9081,0.0,0.0,0.0,4.6201,4.4755,4.1386,4.1191,4.1191,4.1191,4.1191,4.1191,4.1191,4.1191,4.1191,4.1191,4.1191,4.1191,4.1191,4.1191,4.1191,4.1191,4.1191,4.1191,4.1191,4.1191,4.1191,4.1191,4.1191,4.1191,4.125,4.1543,4.1621,4.168,4.2089,4.2226,4.2304,4.2754,4.2989,4.3145,4.3458,4.3613,4.3711,4.3711,4.3711,4.3711,4.3711,4.3711,4.3711,4.3711,4.3711,4.3711,4.3711,4.3711,4.3711,4.3711,4.3711,4.3711,4.3711,4.3711,4.3711,4.3711,4.3711,4.3711,4.3711,4.3711,4.3711,4.3711,4.3711,4.3711,4.3711,4.3711,4.3711,4.3711,4.4023,4.4199,4.4199,4.4492,4.4705,4.4822,4.4822,4.4881,4.4998,4.4881,4.4822,4.4842,4.494,4.5174,0.0,0.0,0.0,0.0,0.0,0.0,5.0072,4.9966,5.0014,0.0,5.2277,5.2536,5.2845,5.2895,5.2895,5.2895,5.2895,5.2895,5.2895,5.1921,5.091,5.0109,4.8974,4.8704,4.989,4.9997,4.9153,4.7139,4.6992,4.5295,4.1405,4.1191,4.1191,4.1191,4.1191,4.1191,4.1191,4.1191,4.1191,4.1191,4.1191,4.1191,4.1191,4.1191,4.1191,4.1191,4.1191,4.1191,4.1191,4.1191,4.1191,4.1191,4.1191,4.1308,4.1484,4.1699,4.1914,4.2109,4.2539,4.2695,4.2773,4.3203,4.336,4.3379,4.3633,4.3711,4.3711,4.3711,4.3711,4.3711,4.3711,4.3711,4.3711,4.3711,4.3711,4.3711,4.3711,4.3711,4.3711,4.3711,4.3711,4.3711,4.3711,4.3711,4.3711,4.3711,4.3711,4.3711,4.3711,4.3711,4.3711,4.3711,4.3711,4.3789,4.3984,4.3984,4.4062,4.4217,4.4512,4.4668,4.4668,4.4881,4.5096,4.5293,4.5293,4.5369,4.5545,4.5369,4.5391,4.5545,4.5545,4.5703,0.0,0.0,0.0,0.0,0.0,0.0,5.0477,5.1331,5.2126,0.0,5.2561,5.2895,5.2895,5.2895,5.2895,5.2895,5.2895,5.2895,5.2895,5.2895,5.2258,5.0516,5.0145,4.9997,4.9997,4.9801,4.883,4.6827,4.6481,4.4849,4.1386,4.1191,4.1191,4.1191,4.1191,4.1191,4.1191,4.1191,4.1191,4.1191,4.1191,4.1191,4.1191,4.1191,4.1191,4.1191,4.1191,4.1191,4.1191,4.125,4.123,4.1191,4.125,4.1484,4.1816,4.1914,4.2187,4.2538,4.3028,4.3165,4.3223,4.3574,4.3711,4.3711,4.3711,4.3711,4.3711,4.3711,4.3711,4.3711,4.3711,4.3711,4.3711,4.3711,4.3711,4.3711,4.3711,4.3711,4.3711,4.3711,4.3711,4.3711,4.3711,4.3711,4.3711,4.3711,4.3711,4.3711,4.3711,4.375,4.3789,4.3789,4.3828,4.4023,4.4433,4.4473,4.4629,4.4979,4.5057,4.5076,4.5076,4.5115,4.5351,4.5764,4.5764,4.594,4.6308,4.594,4.5959,4.6308,4.6308,4.6308,0.0,0.0,0.0,0.0,0.0,0.0,5.0996,5.1624,5.2226,5.2661,5.2837,5.2895,5.2895,5.2895,5.2895,5.2895,5.2895,5.2895,5.2895,5.2895,5.2774,5.2362,5.0945,4.9997,4.9997,4.8542,4.6772,4.4809,4.3228,4.2004,4.125,4.1191,4.1191,4.1191,4.1191,4.1191,4.1191,4.1191,4.1191,4.1191,4.1191,4.1191,4.1191,4.1191,4.1191,4.1191,4.1191,4.1191,4.123,4.1562,4.1504,4.123,4.1562,4.1719,4.1875,4.2598,4.2891,4.3008,4.3437,4.3574,4.3594,4.3672,4.3711,4.3711,4.3711,4.3711,4.3711,4.3711,4.3711,4.3711,4.3711,4.3711,4.3711,4.3711,4.3711,4.3711,4.3711,4.3711,4.3711,4.3711,4.3711,4.3711,4.3711,4.3711,4.3711,4.3711,4.3711,4.3711,4.3711,4.4043,4.4258,4.4258,4.4549,4.4783,4.4881,4.4881,4.492,4.4998,4.5351,4.5547,4.5547,4.5879,4.6094,4.6172,4.6191,4.623,4.6308,4.623,4.623,4.6308,4.6308,4.6308,0.0,0.0,0.0,4.9941,0.0,0.0,0.0,5.2109,5.2586,5.2845,5.2895,5.2895,5.2895,5.2895,5.2895,5.2895,5.2895,5.2895,5.2895,5.2895,5.2542,5.159,5.0587,4.9605,4.8596,4.7577,4.6182,4.4266,4.2311,4.1191,4.1191,4.1191,4.1191,4.1191,4.1191,4.1191,4.1191,4.1191,4.1191,4.1191,4.1191,4.1191,4.1191,4.1191,4.1191,4.1191,4.1191,4.1191,4.123,4.1621,4.168,4.1543,4.1953,4.2246,4.25,4.295,4.3223,4.3418,4.3633,4.3711,4.3711,4.3711,4.3711,4.3711,4.3711,4.3711,4.3711,4.3711,4.3711,4.3711,4.3711,4.3711,4.3711,4.3711,4.3711,4.3711,4.3711,4.3711,4.3711,4.3711,4.3711,4.3711,4.3711,4.3711,4.3789,4.4023,4.4043,4.4121,4.4315,4.4549,4.4686,4.4686,4.4881,4.5096,4.5332,4.5351,4.5449,4.5644,4.5859,4.5996,4.5996,4.6191,4.6308,4.6308,4.6308,4.6308,4.6308,4.6308,4.6308,4.6308,4.6308,4.6308,0.0,0.0,0.0,0.0,0.0,5.1565,0.0,0.0,0.0,5.2895,5.2895,5.2895,5.2895,5.2895,0.0,5.2744,0.0,0.0,0.0,5.282,0.0,5.0752,4.989,4.8938,4.7686,4.6882,4.5648,4.3701,4.208,4.1191,4.1191,4.1191,4.1191,4.1191,4.1191,4.1191,4.1191,4.1191,4.1191,4.1191,4.1191,4.1191,4.1191,4.1191,4.1191,4.1191,4.1191,4.123,4.1348,4.1758,4.1973,4.207,4.2402,4.2773,4.3106,4.3184,4.3418,4.3711,4.3711,4.3711,4.3711,4.3711,4.3711,4.3711,4.3711,4.3711,4.3711,4.3711,4.3711,4.3711,4.3711,4.3711,4.3711,4.3711,4.3711,4.3711,4.3711,4.3711,4.373,4.3828,4.3828,4.3828,4.3828,4.3828,4.3984,4.4453,4.4512,4.4627,4.4959,4.5076,4.5135,4.5135,4.5193,4.5389,4.5783,4.5822,4.5937,4.6289,4.6308,4.6308,4.6308,4.6308,4.6308,4.6308,4.6308,4.6308,4.6308,4.6308,4.6308,4.6308,4.6308,4.6308,0.0,0.0,0.0,0.0,5.1205,0.0,0.0,0.0,5.2895,5.2895,0.0,0.0,0.0,0.0,0.0,0.0,0.0,0.0,5.226,5.2611,5.2826,5.2594,4.948,4.794,4.9516,4.6496,4.3625,4.1676,4.1327,4.1191,4.1191,4.1191,4.1191,4.1191,4.1191,4.1191,4.1191,4.1191,4.1191,4.1191,4.1191,4.1191,4.1191,4.1191,4.1191,4.1191,4.1191,4.1406,4.1758,4.2167,4.2578,4.295,4.3008,4.3048,4.3145,4.3496,4.3672,4.3711,4.3711,4.3711,4.3711,4.3711,4.3711,4.3711,4.3711,4.3711,4.3711,4.3711,4.3711,4.3711,4.3711,4.3711,4.3711,4.3711,4.3711,4.3711,4.3711,4.3711,4.3828,4.4238,4.4316,4.4316,4.4316,4.4316,4.4473,4.4862,4.494,4.4959,4.4998,4.5371,4.5627,4.5627,4.5937,4.6172,4.623,4.623,4.625,4.6289,4.6308,4.6308,4.6308,4.6308,4.6308,4.6308,4.6308,4.6308,4.6308,4.6308,4.6308,4.6308,4.6308,4.6308,0.0,0.0,0.0,0.0,0.0,0.0,0.0,0.0,5.2895,0.0,0.0,0.0,0.0,0.0,0.0,0.0,5.2744,0.0,0.0,0.0,5.1233,0.0,0.0,0.0,4.6717,4.404,4.208,4.1269,4.1191,4.1191,4.1191,4.1191,4.1191,4.1191,4.1191,4.1191,4.1191,4.1191,4.1191,4.1191,4.1191,4.1191,4.1191,4.1191,4.1191,4.1211,4.1445,4.1641,4.1855,4.2519,4.291,4.3126,4.336,4.3437,4.3457,4.3633,4.3711,4.3711,4.3711,4.3711,4.3711,4.3711,4.3711,4.3711,4.3711,4.3711,4.3711,4.3711,4.3711,4.3711,4.3711,4.3711,4.3711,4.3711,4.3711,4.3769,4.4043,4.4101,4.4238,4.4647,4.4744,4.4844,4.5119,4.4922,4.4902,4.5332,4.541,4.5488,4.572,4.5937,4.6035,4.6035,4.6191,4.6308,4.6308,4.6308,4.6308,4.6308,4.6308,4.6308,4.6308,4.6308,4.6308,4.6308,4.6308,4.6308,4.6308,4.6308,4.6308,4.6308,4.6308,4.6308,5.0494,0.0,0.0,0.0,0.0,0.0,0.0,0.0,0.0,0.0,0.0,0.0,0.0,0.0,0.0,0.0,0.0,5.2845,0.0,5.1596,0.0,0.0,0.0,0.0,0.0,4.2502,4.1772,4.125,4.1191,4.1191,4.1191,4.1191,4.1191,4.1191,4.1191,4.1191,4.1191,4.1191,4.1191,4.1191,4.1191,4.1191,4.1191,4.1191,4.1191,4.1211,4.1641,4.1855,4.2031,4.2794,4.3165,4.3302,4.3594,4.3711,4.3711,4.3711,4.3711,4.3711,4.3711,4.3711,4.3711,4.3711,4.3711,4.3711,4.3711,4.3711,4.3711,4.3711,4.3711,4.3711,4.3711,4.3711,4.373,4.3867,4.3887,4.4023,4.4473,4.457,4.4687,4.5096,4.5174,4.5351,4.5803,4.5488,4.5351,4.5803,4.5861,4.5979,4.6269,4.6308,4.6308,4.6308,4.6308,4.6308,4.6308,4.6308,4.6308,4.6308,4.6308,4.6308,4.6308,4.6308,4.6308,4.6308,4.6308,4.6308,4.6308,4.6308,4.6308,4.6308,4.6308,4.6308,0.0,0.0,0.0,5.2101,0.0,0.0,0.0,0.0,5.2895,0.0,0.0,0.0,0.0,0.0,0.0,0.0,0.0,0.0,0.0,0.0,0.0,0.0,0.0,0.0,0.0,4.2941,4.3226,4.1347,4.1191,4.1191,4.1191,4.1191,4.1191,4.1191,4.1191,4.1191,4.1191,4.1191,4.1191,4.1191,4.1191,4.1191,4.1191,4.1191,4.1191,4.1211,4.1641,4.2011,4.2421,4.2891,4.3341,4.3691,4.3691,4.3711,4.3711,4.3711,4.3711,4.3711,4.3711,4.3711,4.3711,4.3711,4.3711,4.3711,4.3711,4.3711,4.3711,4.3711,4.3711,4.3711,4.3711,4.3711,4.3808,4.4277,4.4375,4.4492,4.4881,4.4979,4.5115,4.5588,4.5666,4.5803,4.6211,4.5959,4.5822,4.6211,4.6289,4.6289,4.6308,4.6308,4.6308,4.6308,4.6308,4.6308,4.6308,4.6308,4.6308,4.6308,4.6308,4.6308,4.6308,4.6308,4.6308,4.6308,4.6308,4.6308,4.6308,4.6308,4.6308,4.6308,4.6308,4.6308,0.0,0.0,5.2201,5.2536,0.0,0.0,0.0,0.0,0.0,0.0,0.0,0.0,0.0,0.0,0.0,0.0,0.0,0.0,0.0,0.0,0.0,0.0,0.0,0.0,0.0,0.0,4.1907,4.125,4.1191,4.1191,4.1191,4.1191,4.1191,4.1191,4.1191,4.1191,4.1191,4.1191,4.1191,4.1191,4.1191,4.1191,4.1191,4.1191,4.1348,4.1621,4.2011,4.2441,4.2891,4.332,4.3574,4.3711,4.3711,4.3711,4.3711,4.3711,4.3711,4.3711,4.3711,4.3711,4.3711,4.3711,4.3711,4.3711,4.3711,4.3711,4.3711,4.3711,4.3711,4.3769,4.4082,4.416,4.4277,4.4686,4.4803,4.4901,4.5371,4.5449,4.5586,4.5996,4.6094,4.6133,4.6289,4.6191,4.6133,4.6289,4.6308,4.6308,4.6308,4.6308,4.6308,4.6308,4.6308,4.6308,4.6308,4.6308,4.6308,4.6308,4.6308,4.6308,4.6308,4.6308,4.6308,4.6308,4.6308,4.6308,4.6308,4.6308,4.6308,4.6308,4.6308,4.6308,5.2251,5.2385,0.0,5.2795,5.2895,0.0,5.2895,0.0,0.0,0.0,0.0,0.0,0.0,0.0,0.0,0.0,0.0,0.0,0.0,4.9498,0.0,0.0,0.0,0.0,0.0,4.1191,4.1191,4.1191,4.1191,4.1191,0.0,4.1191,4.1191,4.1191,4.1191,4.1191,4.1191,4.1191,4.1191,4.1191,4.1191,4.1191,4.1191,4.1191,4.1426,4.1816,4.2226,4.2676,4.3126,4.3535,4.3711,4.3711,4.3711,4.3711,4.3711,4.3711,4.3711,4.3711,4.3711,4.3711,4.3711,4.3711,4.3711,4.3711,4.3711,4.3711,4.3769,4.4082,4.4062,4.4082,4.4687,4.4746,4.4726,4.5156,4.5254,4.5371,4.5822,4.592,4.5998,4.625,4.6308,4.6308,4.6308,4.6308,4.6308,4.6308,4.6308,4.6308,4.6308,4.6308,4.6308,4.6308,4.6308,4.6308,4.6308,4.6308,4.6308,4.6308,4.6308,4.6308,4.6308,4.6308,4.6367,4.6501,4.6367,4.6367,4.6501,4.6367,4.6308,4.6308,4.6308,4.6308]}]]